Time,TemperatureF,DewpointF,PressureIn,WindDirection,WindDirectionDegrees,WindSpeedMPH,WindSpeedGustMPH,Humidity,HourlyPrecipIn,Conditions,Clouds,dailyrainin,SolarRadiationWatts/m^2,SoftwareType,DateUTC
2013-04-04 00:00:00,75.7,72.6,30.02,SE,124,8.0,9.0,90,0.00,,FEW,0.00,0.00,VWS V14.01,2013-04-04 04:00:00,
2013-04-04 00:05:00,75.7,72.6,30.02,East,91,8.0,8.0,90,0.00,,FEW,0.00,0.00,VWS V14.01,2013-04-04 04:05:00,
2013-04-04 00:10:00,75.7,72.6,30.02,SE,142,7.0,9.0,90,0.00,,FEW,0.00,0.00,VWS V14.01,2013-04-04 04:10:00,
2013-04-04 00:15:00,75.7,72.2,30.02,SE,142,3.0,12.0,89,0.00,,FEW,0.00,0.00,VWS V14.01,2013-04-04 04:15:00,
2013-04-04 00:20:00,75.7,72.2,30.02,ESE,111,5.0,12.0,89,0.00,,FEW,0.00,0.00,VWS V14.01,2013-04-04 04:20:00,
2013-04-04 00:25:00,75.8,72.3,30.02,ESE,113,5.0,10.0,89,0.00,,FEW,0.00,0.00,VWS V14.01,2013-04-04 04:25:00,
2013-04-04 00:30:00,75.8,72.3,30.02,SE,125,2.0,10.0,89,0.00,,FEW,0.00,0.00,VWS V14.01,2013-04-04 04:30:00,
2013-04-04 00:35:00,75.8,72.3,30.02,SE,126,3.0,8.0,89,0.00,,FEW,0.00,0.00,VWS V14.01,2013-04-04 04:35:00,
2013-04-04 00:36:00,75.9,72.4,30.02,SSE,155,7.0,8.0,89,0.00,,FEW,0.00,0.00,VWS V14.01,2013-04-04 04:36:00,
2013-04-04 00:40:00,75.8,72.3,30.02,SE,130,7.0,10.0,89,0.00,,FEW,0.00,0.00,VWS V14.01,2013-04-04 04:40:00,
2013-04-04 00:41:00,75.9,72.4,30.02,SE,132,8.0,10.0,89,0.00,,FEW,0.00,0.00,VWS V14.01,2013-04-04 04:41:00,
2013-04-04 00:45:00,75.9,72.4,30.02,ESE,119,4.0,8.0,89,0.00,,FEW,0.00,0.00,VWS V14.01,2013-04-04 04:45:00,
2013-04-04 00:46:00,75.9,72.4,30.02,SE,126,4.0,8.0,89,0.00,,FEW,0.00,0.00,VWS V14.01,2013-04-04 04:46:00,
2013-04-04 00:50:00,75.9,72.4,30.02,SE,128,3.0,9.0,89,0.00,,FEW,0.00,0.00,VWS V14.01,2013-04-04 04:50:00,
2013-04-04 00:51:00,75.9,72.4,30.02,SE,136,3.0,9.0,89,0.00,,FEW,0.00,0.00,VWS V14.01,2013-04-04 04:51:00,
2013-04-04 00:56:00,75.9,72.4,30.02,South,173,5.0,7.0,89,0.00,,FEW,0.00,0.00,VWS V14.01,2013-04-04 04:56:00,
2013-04-04 00:57:00,75.9,72.4,30.02,SE,137,1.0,8.0,89,0.00,,FEW,0.00,0.00,VWS V14.01,2013-04-04 04:57:00,
2013-04-04 01:01:00,75.9,72.4,30.02,SE,143,3.0,8.0,89,0.00,,FEW,0.00,0.00,VWS V14.01,2013-04-04 05:01:00,
2013-04-04 01:02:00,75.9,72.4,30.03,SE,138,4.0,8.0,89,0.00,,FEW,0.00,0.00,VWS V14.01,2013-04-04 05:02:00,
2013-04-04 01:06:00,75.9,72.4,30.03,ESE,123,2.0,5.0,89,0.00,,FEW,0.00,0.00,VWS V14.01,2013-04-04 05:06:00,
2013-04-04 01:07:00,75.9,72.4,30.03,SSE,157,6.0,7.0,89,0.00,,FEW,0.00,0.00,VWS V14.01,2013-04-04 05:07:00,
2013-04-04 01:11:00,75.9,72.4,30.03,SE,126,3.0,8.0,89,0.00,,FEW,0.00,0.00,VWS V14.01,2013-04-04 05:11:00,
2013-04-04 01:12:00,75.9,72.4,30.03,ESE,105,5.0,8.0,89,0.00,,FEW,0.00,0.00,VWS V14.01,2013-04-04 05:12:00,
2013-04-04 01:13:00,75.9,72.4,30.03,SE,142,2.0,8.0,89,0.00,,FEW,0.00,0.00,VWS V14.01,2013-04-04 05:13:00,
2013-04-04 01:16:00,75.9,72.4,30.03,ESE,105,1.0,8.0,89,0.00,,FEW,0.00,0.00,VWS V14.01,2013-04-04 05:16:00,
2013-04-04 01:17:00,75.9,72.4,30.02,SSE,152,3.0,8.0,89,0.00,,FEW,0.00,0.00,VWS V14.01,2013-04-04 05:17:00,
2013-04-04 01:18:00,75.9,72.4,30.02,SE,126,7.0,8.0,89,0.00,,FEW,0.00,0.00,VWS V14.01,2013-04-04 05:18:00,
2013-04-04 01:21:00,75.9,72.4,30.02,ESE,107,3.0,9.0,89,0.00,,FEW,0.00,0.00,VWS V14.01,2013-04-04 05:21:00,
2013-04-04 01:22:00,75.9,72.4,30.02,SSE,160,5.0,9.0,89,0.00,,FEW,0.00,0.00,VWS V14.01,2013-04-04 05:22:00,
2013-04-04 01:23:00,75.9,72.4,30.02,ESE,104,5.0,7.0,89,0.00,,FEW,0.00,0.00,VWS V14.01,2013-04-04 05:23:00,
2013-04-04 01:27:00,75.9,72.4,30.02,SE,136,4.0,8.0,89,0.00,,FEW,0.00,0.00,VWS V14.01,2013-04-04 05:27:00,
2013-04-04 01:28:00,75.8,72.3,30.02,SSE,156,3.0,8.0,89,0.00,,FEW,0.00,0.00,VWS V14.01,2013-04-04 05:28:00,
2013-04-04 01:32:00,75.8,72.3,30.02,SE,132,1.0,8.0,89,0.00,,FEW,0.00,0.00,VWS V14.01,2013-04-04 05:32:00,
2013-04-04 01:36:00,75.8,72.3,30.02,SSE,161,6.0,8.0,89,0.00,,FEW,0.00,0.00,VWS V14.01,2013-04-04 05:36:00,
2013-04-04 01:37:00,75.8,72.3,30.02,ESE,109,4.0,8.0,89,0.00,,FEW,0.00,0.00,VWS V14.01,2013-04-04 05:37:00,
2013-04-04 01:42:00,75.8,72.3,30.02,ESE,117,3.0,10.0,89,0.00,,FEW,0.00,0.00,VWS V14.01,2013-04-04 05:42:00,
2013-04-04 01:43:00,75.8,72.3,30.02,SE,134,2.0,6.0,89,0.00,,FEW,0.00,0.00,VWS V14.01,2013-04-04 05:43:00,
2013-04-04 01:47:00,75.8,72.3,30.02,ESE,117,4.0,7.0,89,0.00,,FEW,0.00,0.00,VWS V14.01,2013-04-04 05:47:00,
2013-04-04 01:48:00,75.8,72.3,30.02,SE,132,7.0,9.0,89,0.00,,FEW,0.00,0.00,VWS V14.01,2013-04-04 05:48:00,
2013-04-04 01:52:00,75.8,72.3,30.02,SSE,149,4.0,10.0,89,0.00,,FEW,0.00,0.00,VWS V14.01,2013-04-04 05:52:00,
2013-04-04 01:53:00,75.8,72.3,30.02,SE,129,3.0,7.0,89,0.00,,FEW,0.00,0.00,VWS V14.01,2013-04-04 05:53:00,
2013-04-04 01:57:00,75.7,72.2,30.02,ESE,110,3.0,9.0,89,0.00,,FEW,0.00,0.00,VWS V14.01,2013-04-04 05:57:00,
2013-04-04 01:58:00,75.7,72.2,30.02,SE,126,6.0,9.0,89,0.00,,FEW,0.00,0.00,VWS V14.01,2013-04-04 05:58:00,
2013-04-04 02:02:00,75.8,72.7,30.01,SE,134,3.0,10.0,90,0.00,,FEW,0.00,0.00,VWS V14.01,2013-04-04 06:02:00,
2013-04-04 02:03:00,75.7,72.6,30.01,SE,137,6.0,6.0,90,0.00,,FEW,0.00,0.00,VWS V14.01,2013-04-04 06:03:00,
2013-04-04 02:07:00,75.7,72.6,30.01,ESE,118,4.0,9.0,90,0.00,,FEW,0.00,0.00,VWS V14.01,2013-04-04 06:07:00,
2013-04-04 02:08:00,75.7,72.6,30.01,SE,125,4.0,9.0,90,0.00,,FEW,0.00,0.00,VWS V14.01,2013-04-04 06:08:00,
2013-04-04 02:12:00,75.7,72.6,30.01,SE,142,5.0,7.0,90,0.00,,FEW,0.00,0.00,VWS V14.01,2013-04-04 06:12:00,
2013-04-04 02:13:00,75.7,72.6,30.01,SSE,162,2.0,8.0,90,0.00,,FEW,0.00,0.00,VWS V14.01,2013-04-04 06:13:00,
2013-04-04 02:18:00,75.7,72.6,30.02,ESE,113,7.0,9.0,90,0.00,,FEW,0.00,0.00,VWS V14.01,2013-04-04 06:18:00,
2013-04-04 02:23:00,75.7,72.2,30.02,SE,136,5.0,5.0,89,0.00,,FEW,0.00,0.00,VWS V14.01,2013-04-04 06:23:00,
2013-04-04 02:28:00,75.6,72.5,30.02,SE,139,5.0,10.0,90,0.00,,FEW,0.00,0.00,VWS V14.01,2013-04-04 06:28:00,
2013-04-04 02:33:00,75.7,72.6,30.00,ESE,112,7.0,8.0,90,0.00,,FEW,0.00,0.00,VWS V14.01,2013-04-04 06:33:00,
2013-04-04 02:34:00,75.7,72.6,30.00,ESE,114,4.0,8.0,90,0.00,,FEW,0.00,0.00,VWS V14.01,2013-04-04 06:34:00,
2013-04-04 02:38:00,75.7,72.6,30.00,SE,126,4.0,9.0,90,0.00,,FEW,0.00,0.00,VWS V14.01,2013-04-04 06:38:00,
2013-04-04 02:39:00,75.7,72.6,30.00,SE,135,4.0,9.0,90,0.00,,FEW,0.00,0.00,VWS V14.01,2013-04-04 06:39:00,
2013-04-04 02:43:00,75.7,72.6,30.00,ESE,118,5.0,11.0,90,0.00,,FEW,0.00,0.00,VWS V14.01,2013-04-04 06:43:00,
2013-04-04 02:44:00,75.7,72.6,30.00,SSE,151,3.0,11.0,90,0.00,,FEW,0.00,0.00,VWS V14.01,2013-04-04 06:44:00,
2013-04-04 02:48:00,75.7,72.6,30.00,ESE,104,7.0,11.0,90,0.00,,FEW,0.00,0.00,VWS V14.01,2013-04-04 06:48:00,
2013-04-04 02:49:00,75.7,72.6,30.00,SSE,148,3.0,11.0,90,0.00,,FEW,0.00,0.00,VWS V14.01,2013-04-04 06:49:00,
2013-04-04 02:54:00,75.6,72.5,30.00,SE,124,7.0,7.0,90,0.00,,FEW,0.00,0.00,VWS V14.01,2013-04-04 06:54:00,
2013-04-04 02:55:00,75.6,72.5,30.00,SSE,150,9.0,9.0,90,0.00,,FEW,0.00,0.00,VWS V14.01,2013-04-04 06:55:00,
2013-04-04 02:59:00,75.6,72.5,30.00,ESE,120,4.0,9.0,90,0.00,,FEW,0.00,0.00,VWS V14.01,2013-04-04 06:59:00,
2013-04-04 03:00:00,75.6,72.5,30.00,SE,131,7.0,9.0,90,0.00,,FEW,0.00,0.00,VWS V14.01,2013-04-04 07:00:00,
2013-04-04 03:04:00,75.5,72.4,29.99,SE,129,4.0,11.0,90,0.00,,FEW,0.00,0.00,VWS V14.01,2013-04-04 07:04:00,
2013-04-04 03:05:00,75.5,72.4,29.99,ESE,109,3.0,11.0,90,0.00,,FEW,0.00,0.00,VWS V14.01,2013-04-04 07:05:00,
2013-04-04 03:06:00,75.5,72.4,29.99,SE,127,7.0,11.0,90,0.00,,FEW,0.00,0.00,VWS V14.01,2013-04-04 07:06:00,
2013-04-04 03:09:00,75.6,72.5,29.99,ESE,117,4.0,11.0,90,0.00,,FEW,0.00,0.00,VWS V14.01,2013-04-04 07:09:00,
2013-04-04 03:10:00,75.5,72.4,29.99,SE,142,7.0,11.0,90,0.00,,FEW,0.00,0.00,VWS V14.01,2013-04-04 07:10:00,
2013-04-04 03:11:00,75.5,72.4,29.99,East,97,10.0,11.0,90,0.00,,FEW,0.00,0.00,VWS V14.01,2013-04-04 07:11:00,
2013-04-04 03:12:00,75.5,72.4,29.99,ESE,118,4.0,11.0,90,0.00,,FEW,0.00,0.00,VWS V14.01,2013-04-04 07:12:00,
2013-04-04 03:14:00,75.5,72.4,29.99,SE,140,6.0,10.0,90,0.00,,FEW,0.00,0.00,VWS V14.01,2013-04-04 07:14:00,
2013-04-04 03:15:00,75.5,72.4,29.99,ESE,120,8.0,10.0,90,0.00,,FEW,0.00,0.00,VWS V14.01,2013-04-04 07:15:00,
2013-04-04 03:16:00,75.5,72.4,29.99,SE,136,5.0,10.0,90,0.00,,FEW,0.00,0.00,VWS V14.01,2013-04-04 07:16:00,
2013-04-04 03:17:00,75.5,72.4,29.99,SE,140,7.0,10.0,90,0.00,,FEW,0.00,0.00,VWS V14.01,2013-04-04 07:17:00,
2013-04-04 03:20:00,75.5,72.4,29.99,ESE,113,8.0,11.0,90,0.00,,FEW,0.00,0.00,VWS V14.01,2013-04-04 07:20:00,
2013-04-04 03:21:00,75.5,72.4,29.99,SSE,152,6.0,11.0,90,0.00,,FEW,0.00,0.00,VWS V14.01,2013-04-04 07:21:00,
2013-04-04 03:22:00,75.5,72.4,29.99,SE,132,6.0,11.0,90,0.00,,FEW,0.00,0.00,VWS V14.01,2013-04-04 07:22:00,
2013-04-04 03:25:00,75.5,72.4,29.99,SE,128,10.0,10.0,90,0.00,,FEW,0.00,0.00,VWS V14.01,2013-04-04 07:25:00,
2013-04-04 03:27:00,75.5,72.4,29.99,SSE,163,7.0,10.0,90,0.00,,FEW,0.00,0.00,VWS V14.01,2013-04-04 07:27:00,
2013-04-04 03:30:00,75.5,72.4,29.99,SE,138,3.0,10.0,90,0.00,,FEW,0.00,0.00,VWS V14.01,2013-04-04 07:30:00,
2013-04-04 03:32:00,75.5,72.4,29.98,SE,134,5.0,10.0,90,0.00,,FEW,0.00,0.00,VWS V14.01,2013-04-04 07:32:00,
2013-04-04 03:35:00,75.5,72.4,29.98,SE,124,7.0,12.0,90,0.00,,FEW,0.00,0.00,VWS V14.01,2013-04-04 07:35:00,
2013-04-04 03:37:00,75.5,72.4,29.98,ESE,102,7.0,12.0,90,0.00,,FEW,0.00,0.00,VWS V14.01,2013-04-04 07:37:00,
2013-04-04 03:40:00,75.5,72.4,29.98,SE,137,7.0,12.0,90,0.00,,FEW,0.00,0.00,VWS V14.01,2013-04-04 07:40:00,
2013-04-04 03:42:00,75.5,72.4,29.98,ESE,113,9.0,9.0,90,0.00,,FEW,0.00,0.00,VWS V14.01,2013-04-04 07:42:00,
2013-04-04 03:45:00,75.6,72.5,29.98,ESE,110,9.0,10.0,90,0.00,,FEW,0.00,0.00,VWS V14.01,2013-04-04 07:45:00,
2013-04-04 03:47:00,75.6,72.5,29.97,ESE,111,9.0,10.0,90,0.00,,FEW,0.00,0.00,VWS V14.01,2013-04-04 07:47:00,
2013-04-04 03:50:00,75.5,72.4,29.97,ESE,109,3.0,10.0,90,0.00,,FEW,0.00,0.00,VWS V14.01,2013-04-04 07:50:00,
2013-04-04 03:51:00,75.5,72.4,29.97,SE,145,7.0,10.0,90,0.00,,FEW,0.00,0.00,VWS V14.01,2013-04-04 07:51:00,
2013-04-04 03:52:00,75.5,72.4,29.97,SE,146,5.0,9.0,90,0.00,,FEW,0.00,0.00,VWS V14.01,2013-04-04 07:52:00,
2013-04-04 03:55:00,75.5,72.4,29.97,ESE,120,8.0,11.0,90,0.00,,FEW,0.00,0.00,VWS V14.01,2013-04-04 07:55:00,
2013-04-04 03:56:00,75.5,72.4,29.97,SE,126,5.0,11.0,90,0.00,,FEW,0.00,0.00,VWS V14.01,2013-04-04 07:56:00,
2013-04-04 03:57:00,75.5,72.4,29.97,SE,133,8.0,11.0,90,0.00,,FEW,0.00,0.00,VWS V14.01,2013-04-04 07:57:00,
2013-04-04 04:00:00,75.5,72.4,29.97,ESE,120,8.0,11.0,90,0.00,,FEW,0.00,0.00,VWS V14.01,2013-04-04 08:00:00,
2013-04-04 04:01:00,75.5,72.4,29.97,ESE,119,9.0,11.0,90,0.00,,FEW,0.00,0.00,VWS V14.01,2013-04-04 08:01:00,
2013-04-04 04:02:00,75.5,72.4,29.97,SE,136,4.0,7.0,90,0.00,,FEW,0.00,0.00,VWS V14.01,2013-04-04 08:02:00,
2013-04-04 04:03:00,75.5,72.4,29.97,SE,141,5.0,8.0,90,0.00,,FEW,0.00,0.00,VWS V14.01,2013-04-04 08:03:00,
2013-04-04 04:05:00,75.5,72.4,29.97,SE,134,8.0,11.0,90,0.00,,FEW,0.00,0.00,VWS V14.01,2013-04-04 08:05:00,
2013-04-04 04:07:00,75.5,72.4,29.97,ESE,119,11.0,11.0,90,0.00,,FEW,0.00,0.00,VWS V14.01,2013-04-04 08:07:00,
2013-04-04 04:08:00,75.5,72.4,29.97,ESE,117,3.0,11.0,90,0.00,,FEW,0.00,0.00,VWS V14.01,2013-04-04 08:08:00,
2013-04-04 04:10:00,75.5,72.4,29.97,SE,128,5.0,11.0,90,0.00,,FEW,0.00,0.00,VWS V14.01,2013-04-04 08:10:00,
2013-04-04 04:12:00,75.5,72.4,29.97,SE,141,8.0,11.0,90,0.00,,FEW,0.00,0.00,VWS V14.01,2013-04-04 08:12:00,
2013-04-04 04:13:00,75.5,72.4,29.97,SE,132,6.0,8.0,90,0.00,,FEW,0.00,0.00,VWS V14.01,2013-04-04 08:13:00,
2013-04-04 04:15:00,75.5,72.4,29.97,SE,134,3.0,11.0,90,0.00,,FEW,0.00,0.00,VWS V14.01,2013-04-04 08:15:00,
2013-04-04 04:17:00,75.5,72.4,29.96,SE,145,6.0,11.0,90,0.00,,FEW,0.00,0.00,VWS V14.01,2013-04-04 08:17:00,
2013-04-04 04:18:00,75.5,72.4,29.96,SE,132,7.0,13.0,90,0.00,,FEW,0.00,0.00,VWS V14.01,2013-04-04 08:18:00,
2013-04-04 04:20:00,75.5,72.4,29.96,ESE,107,5.0,13.0,90,0.00,,FEW,0.00,0.00,VWS V14.01,2013-04-04 08:20:00,
2013-04-04 04:22:00,75.5,72.4,29.96,East,95,6.0,13.0,90,0.00,,FEW,0.00,0.00,VWS V14.01,2013-04-04 08:22:00,
2013-04-04 04:23:00,75.5,72.4,29.96,SSE,161,9.0,9.0,90,0.00,,FEW,0.00,0.00,VWS V14.01,2013-04-04 08:23:00,
2013-04-04 04:25:00,75.5,72.4,29.96,ESE,110,5.0,9.0,90,0.00,,FEW,0.00,0.00,VWS V14.01,2013-04-04 08:25:00,
2013-04-04 04:27:00,75.5,72.4,29.96,ESE,107,4.0,10.0,90,0.00,,FEW,0.00,0.00,VWS V14.01,2013-04-04 08:27:00,
2013-04-04 04:28:00,75.5,72.4,29.96,SSE,156,3.0,10.0,90,0.00,,FEW,0.00,0.00,VWS V14.01,2013-04-04 08:28:00,
2013-04-04 04:31:00,75.5,72.4,29.96,ESE,110,9.0,10.0,90,0.00,,FEW,0.00,0.00,VWS V14.01,2013-04-04 08:31:00,
2013-04-04 04:32:00,75.5,72.4,29.96,East,90,2.0,10.0,90,0.00,,FEW,0.00,0.00,VWS V14.01,2013-04-04 08:32:00,
2013-04-04 04:33:00,75.5,72.4,29.96,SE,146,4.0,5.0,90,0.00,,FEW,0.00,0.00,VWS V14.01,2013-04-04 08:33:00,
2013-04-04 04:36:00,75.5,72.4,29.96,SE,129,4.0,9.0,90,0.00,,FEW,0.00,0.00,VWS V14.01,2013-04-04 08:36:00,
2013-04-04 04:37:00,75.5,72.4,29.96,SE,138,5.0,10.0,90,0.00,,FEW,0.00,0.00,VWS V14.01,2013-04-04 08:37:00,
2013-04-04 04:38:00,75.5,72.4,29.96,SE,130,6.0,10.0,90,0.00,,FEW,0.00,0.00,VWS V14.01,2013-04-04 08:38:00,
2013-04-04 04:41:00,75.5,72.4,29.96,SE,142,5.0,10.0,90,0.00,,FEW,0.00,0.00,VWS V14.01,2013-04-04 08:41:00,
2013-04-04 04:42:00,75.5,72.4,29.96,ESE,120,4.0,6.0,90,0.00,,FEW,0.00,0.00,VWS V14.01,2013-04-04 08:42:00,
2013-04-04 04:43:00,75.5,72.4,29.96,ESE,104,4.0,8.0,90,0.00,,FEW,0.00,0.00,VWS V14.01,2013-04-04 08:43:00,
2013-04-04 04:44:00,75.5,72.4,29.96,SE,137,6.0,8.0,90,0.00,,FEW,0.00,0.00,VWS V14.01,2013-04-04 08:44:00,
2013-04-04 04:46:00,75.5,72.4,29.96,East,94,5.0,8.0,90,0.00,,FEW,0.00,0.00,VWS V14.01,2013-04-04 08:46:00,
2013-04-04 04:48:00,75.4,72.3,29.96,SE,126,5.0,8.0,90,0.00,,FEW,0.00,0.00,VWS V14.01,2013-04-04 08:48:00,
2013-04-04 04:49:00,75.4,72.3,29.96,SE,145,4.0,11.0,90,0.00,,FEW,0.00,0.00,VWS V14.01,2013-04-04 08:49:00,
2013-04-04 04:51:00,75.4,72.3,29.96,SE,142,8.0,11.0,90,0.00,,FEW,0.00,0.00,VWS V14.01,2013-04-04 08:51:00,
2013-04-04 04:53:00,75.4,72.3,29.96,SSE,152,4.0,4.0,90,0.00,,FEW,0.00,0.00,VWS V14.01,2013-04-04 08:53:00,
2013-04-04 04:54:00,75.4,72.3,29.96,SE,144,7.0,7.0,90,0.00,,FEW,0.00,0.00,VWS V14.01,2013-04-04 08:54:00,
2013-04-04 04:55:00,75.4,72.3,29.96,SSE,153,8.0,8.0,90,0.00,,FEW,0.00,0.00,VWS V14.01,2013-04-04 08:55:00,
2013-04-04 04:58:00,75.4,72.3,29.96,SE,130,4.0,9.0,90,0.00,,FEW,0.00,0.00,VWS V14.01,2013-04-04 08:58:00,
2013-04-04 04:59:00,75.4,72.3,29.96,ESE,116,4.0,9.0,90,0.00,,FEW,0.00,0.00,VWS V14.01,2013-04-04 08:59:00,
2013-04-04 05:00:00,75.4,72.3,29.96,SE,134,7.0,9.0,90,0.00,,FEW,0.00,0.00,VWS V14.01,2013-04-04 09:00:00,
2013-04-04 05:03:00,75.4,72.3,29.97,SE,126,6.0,7.0,90,0.00,,FEW,0.00,0.00,VWS V14.01,2013-04-04 09:03:00,
2013-04-04 05:04:00,75.4,72.3,29.97,SE,138,5.0,7.0,90,0.00,,FEW,0.00,0.00,VWS V14.01,2013-04-04 09:04:00,
2013-04-04 05:06:00,75.4,72.3,29.97,SE,131,5.0,7.0,90,0.00,,FEW,0.00,0.00,VWS V14.01,2013-04-04 09:06:00,
2013-04-04 05:08:00,75.4,72.3,29.97,SE,140,4.0,10.0,90,0.00,,FEW,0.00,0.00,VWS V14.01,2013-04-04 09:08:00,
2013-04-04 05:10:00,75.4,72.3,29.97,SSE,151,5.0,11.0,90,0.00,,FEW,0.00,0.00,VWS V14.01,2013-04-04 09:10:00,
2013-04-04 05:11:00,75.4,72.3,29.97,SE,143,4.0,11.0,90,0.00,,FEW,0.00,0.00,VWS V14.01,2013-04-04 09:11:00,
2013-04-04 05:13:00,75.4,72.3,29.97,SE,136,4.0,8.0,90,0.00,,FEW,0.00,0.00,VWS V14.01,2013-04-04 09:13:00,
2013-04-04 05:14:00,75.4,72.3,29.97,SSE,151,7.0,8.0,90,0.00,,FEW,0.00,0.00,VWS V14.01,2013-04-04 09:14:00,
2013-04-04 05:15:00,75.4,72.3,29.97,SE,127,6.0,8.0,90,0.00,,FEW,0.00,0.00,VWS V14.01,2013-04-04 09:15:00,
2013-04-04 05:16:00,75.4,72.3,29.97,SE,131,5.0,8.0,90,0.00,,FEW,0.00,0.00,VWS V14.01,2013-04-04 09:16:00,
2013-04-04 05:18:00,75.5,72.4,29.97,SSE,163,8.0,8.0,90,0.00,,FEW,0.00,0.00,VWS V14.01,2013-04-04 09:18:00,
2013-04-04 05:19:00,75.5,72.4,29.97,SE,132,8.0,11.0,90,0.00,,FEW,0.00,0.00,VWS V14.01,2013-04-04 09:19:00,
2013-04-04 05:20:00,75.5,72.4,29.97,ESE,109,8.0,11.0,90,0.00,,FEW,0.00,0.00,VWS V14.01,2013-04-04 09:20:00,
2013-04-04 05:21:00,75.5,72.4,29.97,SSE,159,4.0,11.0,90,0.00,,FEW,0.00,0.00,VWS V14.01,2013-04-04 09:21:00,
2013-04-04 05:23:00,75.5,72.4,29.97,SE,142,4.0,9.0,90,0.00,,FEW,0.00,0.00,VWS V14.01,2013-04-04 09:23:00,
2013-04-04 05:24:00,75.5,72.4,29.97,SE,125,4.0,9.0,90,0.00,,FEW,0.00,0.00,VWS V14.01,2013-04-04 09:24:00,
2013-04-04 05:25:00,75.5,72.4,29.97,SSE,150,4.0,9.0,90,0.00,,FEW,0.00,0.00,VWS V14.01,2013-04-04 09:25:00,
2013-04-04 05:26:00,75.5,72.4,29.97,SE,135,9.0,10.0,90,0.00,,FEW,0.00,0.00,VWS V14.01,2013-04-04 09:26:00,
2013-04-04 05:29:00,75.5,72.4,29.97,SE,125,6.0,10.0,90,0.00,,FEW,0.00,0.00,VWS V14.01,2013-04-04 09:29:00,
2013-04-04 05:30:00,75.5,72.4,29.97,SE,128,5.0,10.0,90,0.00,,FEW,0.00,0.00,VWS V14.01,2013-04-04 09:30:00,
2013-04-04 05:32:00,75.5,72.4,29.97,SE,126,5.0,10.0,90,0.00,,FEW,0.00,0.00,VWS V14.01,2013-04-04 09:32:00,
2013-04-04 05:34:00,75.5,72.4,29.97,SSE,153,6.0,8.0,90,0.00,,FEW,0.00,0.00,VWS V14.01,2013-04-04 09:34:00,
2013-04-04 05:35:00,75.5,72.4,29.97,SE,131,6.0,8.0,90,0.00,,FEW,0.00,0.00,VWS V14.01,2013-04-04 09:35:00,
2013-04-04 05:37:00,75.5,72.4,29.97,SE,130,4.0,8.0,90,0.00,,FEW,0.00,0.00,VWS V14.01,2013-04-04 09:37:00,
2013-04-04 05:39:00,75.5,72.4,29.97,SE,138,8.0,8.0,90,0.00,,FEW,0.00,0.00,VWS V14.01,2013-04-04 09:39:00,
2013-04-04 05:40:00,75.5,72.4,29.97,SE,138,7.0,8.0,90,0.00,,FEW,0.00,0.00,VWS V14.01,2013-04-04 09:40:00,
2013-04-04 05:42:00,75.6,72.5,29.97,SSE,167,7.0,9.0,90,0.00,,FEW,0.00,0.00,VWS V14.01,2013-04-04 09:42:00,
2013-04-04 05:44:00,75.5,72.4,29.97,SE,136,8.0,9.0,90,0.00,,FEW,0.00,0.00,VWS V14.01,2013-04-04 09:44:00,
2013-04-04 05:45:00,75.5,72.4,29.97,South,186,8.0,9.0,90,0.00,,FEW,0.00,0.00,VWS V14.01,2013-04-04 09:45:00,
2013-04-04 05:47:00,75.5,72.4,29.97,SSE,153,6.0,9.0,90,0.00,,FEW,0.00,0.00,VWS V14.01,2013-04-04 09:47:00,
2013-04-04 05:49:00,75.5,72.4,29.97,SE,144,7.0,9.0,90,0.00,,FEW,0.00,0.00,VWS V14.01,2013-04-04 09:49:00,
2013-04-04 05:50:00,75.5,72.4,29.97,SE,132,4.0,9.0,90,0.00,,FEW,0.00,0.00,VWS V14.01,2013-04-04 09:50:00,
2013-04-04 05:52:00,75.5,72.4,29.97,South,169,6.0,9.0,90,0.00,,FEW,0.00,0.00,VWS V14.01,2013-04-04 09:52:00,
2013-04-04 05:54:00,75.5,72.4,29.97,SE,130,6.0,8.0,90,0.00,,FEW,0.00,0.00,VWS V14.01,2013-04-04 09:54:00,
2013-04-04 05:55:00,75.5,72.4,29.97,SE,134,4.0,8.0,90,0.00,,FEW,0.00,0.00,VWS V14.01,2013-04-04 09:55:00,
2013-04-04 05:57:00,75.5,72.4,29.97,SE,134,4.0,9.0,90,0.00,,FEW,0.00,0.00,VWS V14.01,2013-04-04 09:57:00,
2013-04-04 05:58:00,75.5,72.4,29.97,SSE,158,6.0,9.0,90,0.00,,FEW,0.00,0.00,VWS V14.01,2013-04-04 09:58:00,
2013-04-04 05:59:00,75.5,72.4,29.97,ESE,109,7.0,9.0,90,0.00,,FEW,0.00,0.00,VWS V14.01,2013-04-04 09:59:00,
2013-04-04 06:01:00,75.5,72.4,29.97,SE,130,4.0,9.0,90,0.00,,FEW,0.00,0.00,VWS V14.01,2013-04-04 10:01:00,
2013-04-04 06:02:00,75.5,72.4,29.97,SE,139,5.0,6.0,90,0.00,,FEW,0.00,0.00,VWS V14.01,2013-04-04 10:02:00,
2013-04-04 06:03:00,75.5,72.4,29.97,SE,127,6.0,9.0,90,0.00,,FEW,0.00,0.00,VWS V14.01,2013-04-04 10:03:00,
2013-04-04 06:05:00,75.5,72.4,29.97,SSE,149,4.0,9.0,90,0.00,,FEW,0.00,0.00,VWS V14.01,2013-04-04 10:05:00,
2013-04-04 06:06:00,75.5,72.4,29.97,SSE,155,5.0,9.0,90,0.00,,FEW,0.00,0.00,VWS V14.01,2013-04-04 10:06:00,
2013-04-04 06:07:00,75.4,72.3,29.97,SE,140,7.0,9.0,90,0.00,,FEW,0.00,0.00,VWS V14.01,2013-04-04 10:07:00,
2013-04-04 06:08:00,75.5,72.4,29.97,ESE,117,3.0,9.0,90,0.00,,FEW,0.00,0.00,VWS V14.01,2013-04-04 10:08:00,
2013-04-04 06:10:00,75.4,72.3,29.97,SE,140,9.0,9.0,90,0.00,,FEW,0.00,0.00,VWS V14.01,2013-04-04 10:10:00,
2013-04-04 06:12:00,75.4,72.3,29.97,SE,139,6.0,9.0,90,0.00,,FEW,0.00,0.00,VWS V14.01,2013-04-04 10:12:00,
2013-04-04 06:13:00,75.4,72.3,29.97,SE,138,6.0,9.0,90,0.00,,FEW,0.00,0.00,VWS V14.01,2013-04-04 10:13:00,
2013-04-04 06:15:00,75.4,72.3,29.97,SE,139,7.0,9.0,90,0.00,,FEW,0.00,0.00,VWS V14.01,2013-04-04 10:15:00,
2013-04-04 06:17:00,75.4,72.3,29.98,ESE,119,4.0,9.0,90,0.00,,FEW,0.00,0.00,VWS V14.01,2013-04-04 10:17:00,
2013-04-04 06:18:00,75.4,72.3,29.98,SE,127,3.0,9.0,90,0.00,,FEW,0.00,0.00,VWS V14.01,2013-04-04 10:18:00,
2013-04-04 06:20:00,75.4,72.3,29.98,South,173,3.0,9.0,90,0.00,,FEW,0.00,0.00,VWS V14.01,2013-04-04 10:20:00,
2013-04-04 06:22:00,75.4,72.3,29.98,East,97,3.0,9.0,90,0.00,,FEW,0.00,0.00,VWS V14.01,2013-04-04 10:22:00,
2013-04-04 06:23:00,75.4,72.3,29.98,SE,125,7.0,9.0,90,0.00,,FEW,0.00,0.00,VWS V14.01,2013-04-04 10:23:00,
2013-04-04 06:24:00,75.4,72.3,29.98,SE,131,7.0,9.0,90,0.00,,FEW,0.00,0.00,VWS V14.01,2013-04-04 10:24:00,
2013-04-04 06:25:00,75.4,72.3,29.98,ESE,123,7.0,9.0,90,0.00,,FEW,0.00,0.00,VWS V14.01,2013-04-04 10:25:00,
2013-04-04 06:28:00,75.4,72.3,29.98,SE,146,6.0,9.0,90,0.00,,FEW,0.00,0.00,VWS V14.01,2013-04-04 10:28:00,
2013-04-04 06:29:00,75.4,72.3,29.98,SE,145,7.0,9.0,90,0.00,,FEW,0.00,0.00,VWS V14.01,2013-04-04 10:29:00,
2013-04-04 06:30:00,75.5,72.4,29.98,SSE,150,6.0,9.0,90,0.00,,FEW,0.00,0.00,VWS V14.01,2013-04-04 10:30:00,
2013-04-04 06:33:00,75.4,72.3,29.98,SSE,154,4.0,9.0,90,0.00,,FEW,0.00,0.00,VWS V14.01,2013-04-04 10:33:00,
2013-04-04 06:34:00,75.4,72.3,29.98,SE,136,4.0,9.0,90,0.00,,FEW,0.00,0.00,VWS V14.01,2013-04-04 10:34:00,
2013-04-04 06:35:00,75.4,72.3,29.98,SE,138,4.0,9.0,90,0.00,,FEW,0.00,0.00,VWS V14.01,2013-04-04 10:35:00,
2013-04-04 06:38:00,75.4,72.3,29.98,SSE,147,9.0,9.0,90,0.00,,FEW,0.00,0.00,VWS V14.01,2013-04-04 10:38:00,
2013-04-04 06:39:00,75.4,72.3,29.98,SE,135,5.0,9.0,90,0.00,,FEW,0.00,0.00,VWS V14.01,2013-04-04 10:39:00,
2013-04-04 06:40:00,75.5,72.4,29.98,SSE,150,7.0,9.0,90,0.00,,FEW,0.00,0.00,VWS V14.01,2013-04-04 10:40:00,
2013-04-04 06:43:00,75.5,72.4,29.98,ESE,115,3.0,7.0,90,0.00,,FEW,0.00,0.00,VWS V14.01,2013-04-04 10:43:00,
2013-04-04 06:45:00,75.5,72.4,29.98,SSE,162,5.0,8.0,90,0.00,,FEW,0.00,0.00,VWS V14.01,2013-04-04 10:45:00,
2013-04-04 06:48:00,75.5,72.4,29.99,SSE,157,9.0,9.0,90,0.00,,FEW,0.00,0.00,VWS V14.01,2013-04-04 10:48:00,
2013-04-04 06:49:00,75.5,72.4,29.99,SSE,155,3.0,9.0,90,0.00,,FEW,0.00,0.00,VWS V14.01,2013-04-04 10:49:00,
2013-04-04 06:50:00,75.5,72.4,29.99,SE,130,5.0,9.0,90,0.00,,FEW,0.00,0.00,VWS V14.01,2013-04-04 10:50:00,
2013-04-04 06:53:00,75.5,72.4,29.99,ESE,121,10.0,10.0,90,0.00,,FEW,0.00,0.00,VWS V14.01,2013-04-04 10:53:00,
2013-04-04 06:54:00,75.5,72.4,29.99,ESE,111,3.0,10.0,90,0.00,,FEW,0.00,0.00,VWS V14.01,2013-04-04 10:54:00,
2013-04-04 06:55:00,75.5,72.4,29.99,South,171,7.0,10.0,90,0.00,,FEW,0.00,0.00,VWS V14.01,2013-04-04 10:55:00,
2013-04-04 06:58:00,75.5,72.4,29.99,SSE,159,7.0,10.0,90,0.00,,FEW,0.00,0.00,VWS V14.01,2013-04-04 10:58:00,
2013-04-04 06:59:00,75.5,72.4,29.99,ESE,107,3.0,10.0,90,0.00,,FEW,0.00,0.00,VWS V14.01,2013-04-04 10:59:00,
2013-04-04 07:00:00,75.5,72.4,29.99,SSE,148,7.0,10.0,90,0.00,,FEW,0.00,0.00,VWS V14.01,2013-04-04 11:00:00,
2013-04-04 07:01:00,75.5,72.4,29.99,ESE,117,7.0,10.0,90,0.00,,FEW,0.00,0.00,VWS V14.01,2013-04-04 11:01:00,
2013-04-04 07:03:00,75.5,72.4,29.99,SE,137,3.0,7.0,90,0.00,,FEW,0.00,0.00,VWS V14.01,2013-04-04 11:03:00,
2013-04-04 07:05:00,75.5,72.4,29.99,ESE,105,5.0,8.0,90,0.00,,FEW,0.00,0.00,VWS V14.01,2013-04-04 11:05:00,
2013-04-04 07:06:00,75.5,72.4,29.99,SSE,165,5.0,8.0,90,0.00,,FEW,0.00,0.00,VWS V14.01,2013-04-04 11:06:00,
2013-04-04 07:10:00,75.5,72.4,29.99,SSE,152,3.0,8.0,90,0.00,,FEW,0.00,0.00,VWS V14.01,2013-04-04 11:10:00,
2013-04-04 07:11:00,75.5,72.4,29.99,SE,143,4.0,8.0,90,0.00,,FEW,0.00,0.00,VWS V14.01,2013-04-04 11:11:00,
2013-04-04 07:15:00,75.5,72.4,29.99,SE,140,3.0,6.0,90,0.00,,FEW,0.00,5.00,VWS V14.01,2013-04-04 11:15:00,
2013-04-04 07:16:00,75.5,72.4,29.99,SE,125,3.0,6.0,90,0.00,,FEW,0.00,5.00,VWS V14.01,2013-04-04 11:16:00,
2013-04-04 07:20:00,75.5,72.4,29.99,SSE,162,4.0,8.0,90,0.00,,FEW,0.00,9.00,VWS V14.01,2013-04-04 11:20:00,
2013-04-04 07:21:00,75.5,72.4,29.99,SSE,159,5.0,8.0,90,0.00,,FEW,0.00,9.00,VWS V14.01,2013-04-04 11:21:00,
2013-04-04 07:25:00,75.5,72.4,29.99,East,101,6.0,7.0,90,0.00,,FEW,0.00,12.00,VWS V14.01,2013-04-04 11:25:00,
2013-04-04 07:26:00,75.5,72.4,29.99,SSE,155,5.0,7.0,90,0.00,,FEW,0.00,14.00,VWS V14.01,2013-04-04 11:26:00,
2013-04-04 07:30:00,75.6,72.5,29.99,SSE,150,8.0,8.0,90,0.00,,FEW,0.00,18.00,VWS V14.01,2013-04-04 11:30:00,
2013-04-04 07:31:00,75.5,72.4,29.99,SE,145,6.0,8.0,90,0.00,,FEW,0.00,19.00,VWS V14.01,2013-04-04 11:31:00,
2013-04-04 07:32:00,75.6,72.5,29.99,SSE,163,7.0,8.0,90,0.00,,FEW,0.00,19.00,VWS V14.01,2013-04-04 11:32:00,
2013-04-04 07:35:00,75.6,72.5,29.99,East,101,7.0,9.0,90,0.00,,FEW,0.00,23.00,VWS V14.01,2013-04-04 11:35:00,
2013-04-04 07:36:00,75.6,72.5,29.99,ESE,118,2.0,9.0,90,0.00,,FEW,0.00,23.00,VWS V14.01,2013-04-04 11:36:00,
2013-04-04 07:37:00,75.6,72.5,29.99,SE,140,7.0,9.0,90,0.00,,FEW,0.00,23.00,VWS V14.01,2013-04-04 11:37:00,
2013-04-04 07:40:00,75.6,72.5,29.99,SSE,148,4.0,9.0,90,0.00,,FEW,0.00,28.00,VWS V14.01,2013-04-04 11:40:00,
2013-04-04 07:42:00,75.6,72.5,29.99,SE,130,5.0,9.0,90,0.00,,FEW,0.00,32.00,VWS V14.01,2013-04-04 11:42:00,
2013-04-04 07:45:00,75.6,72.5,29.99,SE,136,5.0,9.0,90,0.00,,FEW,0.00,32.00,VWS V14.01,2013-04-04 11:45:00,
2013-04-04 07:47:00,75.7,72.6,29.99,SSE,159,3.0,9.0,90,0.00,,FEW,0.00,35.00,VWS V14.01,2013-04-04 11:47:00,
2013-04-04 07:50:00,75.7,72.6,29.99,ESE,121,3.0,9.0,90,0.00,,FEW,0.00,39.00,VWS V14.01,2013-04-04 11:50:00,
2013-04-04 07:52:00,75.8,72.7,29.99,SE,128,7.0,10.0,90,0.00,,FEW,0.00,39.00,VWS V14.01,2013-04-04 11:52:00,
2013-04-04 07:56:00,75.8,72.7,29.99,SSE,150,4.0,8.0,90,0.00,,FEW,0.00,42.00,VWS V14.01,2013-04-04 11:56:00,
2013-04-04 07:57:00,75.8,72.7,29.99,SE,128,6.0,8.0,90,0.00,,FEW,0.00,44.00,VWS V14.01,2013-04-04 11:57:00,
2013-04-04 07:58:00,75.8,72.7,29.99,SE,141,8.0,8.0,90,0.00,,FEW,0.00,44.00,VWS V14.01,2013-04-04 11:58:00,
2013-04-04 08:01:00,75.9,72.8,29.99,SSE,168,7.0,10.0,90,0.00,,FEW,0.00,46.00,VWS V14.01,2013-04-04 12:01:00,
2013-04-04 08:02:00,75.9,72.8,29.99,ESE,113,5.0,10.0,90,0.00,,FEW,0.00,47.00,VWS V14.01,2013-04-04 12:02:00,
2013-04-04 08:03:00,75.9,72.8,29.99,SE,136,4.0,5.0,90,0.00,,FEW,0.00,47.00,VWS V14.01,2013-04-04 12:03:00,
2013-04-04 08:06:00,75.9,72.8,29.99,South,171,5.0,7.0,90,0.00,,FEW,0.00,51.00,VWS V14.01,2013-04-04 12:06:00,
2013-04-04 08:07:00,76.0,72.9,29.99,SSE,150,3.0,8.0,90,0.00,,FEW,0.00,53.00,VWS V14.01,2013-04-04 12:07:00,
2013-04-04 08:08:00,76.0,72.9,29.99,SE,140,4.0,8.0,90,0.00,,FEW,0.00,53.00,VWS V14.01,2013-04-04 12:08:00,
2013-04-04 08:11:00,76.1,73.0,29.99,SE,126,3.0,8.0,90,0.00,,FEW,0.00,54.00,VWS V14.01,2013-04-04 12:11:00,
2013-04-04 08:12:00,76.1,73.0,29.99,SE,145,5.0,5.0,90,0.00,,FEW,0.00,56.00,VWS V14.01,2013-04-04 12:12:00,
2013-04-04 08:13:00,76.1,73.0,29.99,East,101,6.0,6.0,90,0.00,,FEW,0.00,58.00,VWS V14.01,2013-04-04 12:13:00,
2013-04-04 08:15:00,76.1,73.0,29.99,ESE,116,4.0,7.0,90,0.00,,FEW,0.00,67.00,VWS V14.01,2013-04-04 12:15:00,
2013-04-04 08:16:00,76.2,73.1,29.99,SSE,154,4.0,7.0,90,0.00,,FEW,0.00,69.00,VWS V14.01,2013-04-04 12:16:00,
2013-04-04 08:17:00,76.2,73.1,29.99,SE,126,2.0,7.0,90,0.00,,FEW,0.00,65.00,VWS V14.01,2013-04-04 12:17:00,
2013-04-04 08:19:00,76.2,73.1,29.99,SE,142,1.0,7.0,90,0.00,,FEW,0.00,63.00,VWS V14.01,2013-04-04 12:19:00,
2013-04-04 08:21:00,76.3,73.2,29.99,SSE,148,5.0,7.0,90,0.00,,FEW,0.00,65.00,VWS V14.01,2013-04-04 12:21:00,
2013-04-04 08:22:00,76.3,73.2,29.99,SSE,152,4.0,4.0,90,0.00,,FEW,0.00,69.00,VWS V14.01,2013-04-04 12:22:00,
2013-04-04 08:24:00,76.3,73.2,29.99,SE,128,5.0,5.0,90,0.00,,FEW,0.00,67.00,VWS V14.01,2013-04-04 12:24:00,
2013-04-04 08:27:00,76.4,72.9,29.99,SSE,159,3.0,8.0,89,0.00,,FEW,0.00,69.00,VWS V14.01,2013-04-04 12:27:00,
2013-04-04 08:28:00,76.4,72.9,29.99,SSE,157,7.0,8.0,89,0.00,,FEW,0.00,79.00,VWS V14.01,2013-04-04 12:28:00,
2013-04-04 08:29:00,76.4,72.9,29.99,SSE,148,4.0,8.0,89,0.00,,FEW,0.00,70.00,VWS V14.01,2013-04-04 12:29:00,
2013-04-04 08:32:00,76.5,73.0,29.99,SSE,154,5.0,9.0,89,0.00,,FEW,0.00,72.00,VWS V14.01,2013-04-04 12:32:00,
2013-04-04 08:33:00,76.5,73.0,29.99,SE,136,4.0,8.0,89,0.00,,FEW,0.00,105.00,VWS V14.01,2013-04-04 12:33:00,
2013-04-04 08:34:00,76.5,73.0,29.99,ESE,122,5.0,8.0,89,0.00,,FEW,0.00,83.00,VWS V14.01,2013-04-04 12:34:00,
2013-04-04 08:37:00,76.6,73.1,29.99,SE,136,4.0,8.0,89,0.00,,FEW,0.00,90.00,VWS V14.01,2013-04-04 12:37:00,
2013-04-04 08:38:00,76.7,73.2,29.99,SE,141,7.0,9.0,89,0.00,,FEW,0.00,77.00,VWS V14.01,2013-04-04 12:38:00,
2013-04-04 08:39:00,76.7,73.2,29.99,SE,126,3.0,11.0,89,0.00,,FEW,0.00,77.00,VWS V14.01,2013-04-04 12:39:00,
2013-04-04 08:42:00,76.7,73.2,29.99,South,173,8.0,11.0,89,0.00,,FEW,0.00,88.00,VWS V14.01,2013-04-04 12:42:00,
2013-04-04 08:43:00,76.7,73.2,29.99,SSE,148,5.0,8.0,89,0.00,,FEW,0.00,165.00,VWS V14.01,2013-04-04 12:43:00,
2013-04-04 08:44:00,76.8,73.3,29.99,SSE,147,6.0,8.0,89,0.00,,FEW,0.00,95.00,VWS V14.01,2013-04-04 12:44:00,
2013-04-04 08:47:00,76.9,73.4,29.99,ESE,107,3.0,11.0,89,0.00,,FEW,0.00,104.00,VWS V14.01,2013-04-04 12:47:00,
2013-04-04 08:48:00,76.9,73.4,29.99,SE,131,5.0,11.0,89,0.00,,FEW,0.00,113.00,VWS V14.01,2013-04-04 12:48:00,
2013-04-04 08:49:00,77.0,73.5,29.99,SSE,149,8.0,11.0,89,0.00,,FEW,0.00,199.00,VWS V14.01,2013-04-04 12:49:00,
2013-04-04 08:52:00,77.1,73.3,29.99,SE,141,6.0,7.0,88,0.00,,FEW,0.00,90.00,VWS V14.01,2013-04-04 12:52:00,
2013-04-04 08:53:00,77.1,73.3,29.99,ESE,115,10.0,10.0,88,0.00,,FEW,0.00,90.00,VWS V14.01,2013-04-04 12:53:00,
2013-04-04 08:55:00,77.1,73.3,29.99,SE,142,7.0,10.0,88,0.00,,FEW,0.00,90.00,VWS V14.01,2013-04-04 12:55:00,
2013-04-04 08:57:00,77.2,73.4,29.99,SE,144,8.0,11.0,88,0.00,,FEW,0.00,111.00,VWS V14.01,2013-04-04 12:57:00,
2013-04-04 08:58:00,77.2,73.4,29.99,ESE,114,10.0,11.0,88,0.00,,FEW,0.00,111.00,VWS V14.01,2013-04-04 12:58:00,
2013-04-04 08:59:00,77.2,73.4,29.99,ESE,121,7.0,11.0,88,0.00,,FEW,0.00,190.00,VWS V14.01,2013-04-04 12:59:00,
2013-04-04 09:00:00,77.2,73.4,29.99,SE,124,4.0,11.0,88,0.00,,FEW,0.00,283.00,VWS V14.01,2013-04-04 13:00:00,
2013-04-04 09:03:00,77.3,73.5,29.99,SSE,150,6.0,10.0,88,0.00,,FEW,0.00,153.00,VWS V14.01,2013-04-04 13:03:00,
2013-04-04 09:04:00,77.4,73.6,29.99,SSE,148,7.0,10.0,88,0.00,,FEW,0.00,232.00,VWS V14.01,2013-04-04 13:04:00,
2013-04-04 09:05:00,77.4,73.6,29.99,SE,143,10.0,10.0,88,0.00,,FEW,0.00,243.00,VWS V14.01,2013-04-04 13:05:00,
2013-04-04 09:08:00,77.4,73.6,29.99,SE,144,6.0,11.0,88,0.00,,FEW,0.00,306.00,VWS V14.01,2013-04-04 13:08:00,
2013-04-04 09:09:00,77.5,73.7,29.99,ESE,119,4.0,11.0,88,0.00,,FEW,0.00,299.00,VWS V14.01,2013-04-04 13:09:00,
2013-04-04 09:10:00,77.5,73.7,29.99,SE,132,4.0,11.0,88,0.00,,FEW,0.00,320.00,VWS V14.01,2013-04-04 13:10:00,
2013-04-04 09:13:00,77.6,73.8,29.99,SE,136,5.0,7.0,88,0.00,,FEW,0.00,330.00,VWS V14.01,2013-04-04 13:13:00,
2013-04-04 09:14:00,77.7,73.9,29.99,SE,129,5.0,9.0,88,0.00,,FEW,0.00,334.00,VWS V14.01,2013-04-04 13:14:00,
2013-04-04 09:15:00,77.7,73.9,29.99,SSE,162,7.0,9.0,88,0.00,,FEW,0.00,338.00,VWS V14.01,2013-04-04 13:15:00,
2013-04-04 09:18:00,77.8,73.6,29.99,SSE,149,6.0,9.0,87,0.00,,FEW,0.00,343.00,VWS V14.01,2013-04-04 13:18:00,
2013-04-04 09:19:00,77.8,73.6,29.99,SE,143,8.0,10.0,87,0.00,,FEW,0.00,304.00,VWS V14.01,2013-04-04 13:19:00,
2013-04-04 09:20:00,77.9,73.7,29.99,ESE,121,9.0,10.0,87,0.00,,FEW,0.00,367.00,VWS V14.01,2013-04-04 13:20:00,
2013-04-04 09:21:00,77.8,73.6,29.99,SE,132,9.0,10.0,87,0.00,,FEW,0.00,367.00,VWS V14.01,2013-04-04 13:21:00,
2013-04-04 09:24:00,78.0,73.8,29.99,SE,136,10.0,10.0,87,0.00,,FEW,0.00,246.00,VWS V14.01,2013-04-04 13:24:00,
2013-04-04 09:25:00,78.0,73.8,29.99,South,179,6.0,12.0,87,0.00,,FEW,0.00,390.00,VWS V14.01,2013-04-04 13:25:00,
2013-04-04 09:26:00,78.0,73.8,29.99,SE,130,8.0,12.0,87,0.00,,FEW,0.00,385.00,VWS V14.01,2013-04-04 13:26:00,
2013-04-04 09:29:00,78.0,73.8,29.99,SE,129,9.0,12.0,87,0.00,,FEW,0.00,239.00,VWS V14.01,2013-04-04 13:29:00,
2013-04-04 09:30:00,78.1,73.9,29.99,SE,140,5.0,12.0,87,0.00,,FEW,0.00,408.00,VWS V14.01,2013-04-04 13:30:00,
2013-04-04 09:32:00,78.1,73.9,29.99,SE,138,5.0,13.0,87,0.00,,FEW,0.00,408.00,VWS V14.01,2013-04-04 13:32:00,
2013-04-04 09:34:00,78.2,74.0,29.99,SSE,153,5.0,9.0,87,0.00,,FEW,0.00,408.00,VWS V14.01,2013-04-04 13:34:00,
2013-04-04 09:35:00,78.3,74.1,29.99,SE,132,6.0,9.0,87,0.00,,FEW,0.00,408.00,VWS V14.01,2013-04-04 13:35:00,
2013-04-04 09:36:00,78.3,74.1,29.99,SE,134,6.0,9.0,87,0.00,,FEW,0.00,410.00,VWS V14.01,2013-04-04 13:36:00,
2013-04-04 09:37:00,78.4,73.9,29.99,SE,144,7.0,9.0,86,0.00,,FEW,0.00,420.00,VWS V14.01,2013-04-04 13:37:00,
2013-04-04 09:39:00,78.5,74.0,29.99,SE,144,5.0,10.0,86,0.00,,FEW,0.00,425.00,VWS V14.01,2013-04-04 13:39:00,
2013-04-04 09:40:00,78.5,74.0,29.99,SE,129,5.0,10.0,86,0.00,,FEW,0.00,425.00,VWS V14.01,2013-04-04 13:40:00,
2013-04-04 09:41:00,78.6,74.1,29.99,East,85,13.0,13.0,86,0.00,,FEW,0.00,434.00,VWS V14.01,2013-04-04 13:41:00,
2013-04-04 09:42:00,78.7,74.2,29.99,SE,146,6.0,13.0,86,0.00,,FEW,0.00,438.00,VWS V14.01,2013-04-04 13:42:00,
2013-04-04 09:44:00,78.8,74.3,29.99,ESE,115,5.0,10.0,86,0.00,,FEW,0.00,446.00,VWS V14.01,2013-04-04 13:44:00,
2013-04-04 09:45:00,78.8,74.3,29.99,SSE,150,5.0,10.0,86,0.00,,FEW,0.00,446.00,VWS V14.01,2013-04-04 13:45:00,
2013-04-04 09:46:00,78.9,74.4,29.99,SE,133,9.0,10.0,86,0.00,,FEW,0.00,452.00,VWS V14.01,2013-04-04 13:46:00,
2013-04-04 09:47:00,78.9,74.4,29.99,SE,144,4.0,10.0,86,0.00,,FEW,0.00,459.00,VWS V14.01,2013-04-04 13:47:00,
2013-04-04 09:49:00,79.1,74.6,29.99,SSE,148,7.0,10.0,86,0.00,,FEW,0.00,469.00,VWS V14.01,2013-04-04 13:49:00,
2013-04-04 09:50:00,79.1,74.2,29.99,SE,142,5.0,10.0,85,0.00,,FEW,0.00,469.00,VWS V14.01,2013-04-04 13:50:00,
2013-04-04 09:51:00,79.2,74.3,29.99,SE,143,8.0,10.0,85,0.00,,FEW,0.00,476.00,VWS V14.01,2013-04-04 13:51:00,
2013-04-04 09:52:00,79.3,74.4,29.99,South,179,8.0,9.0,85,0.00,,FEW,0.00,478.00,VWS V14.01,2013-04-04 13:52:00,
2013-04-04 09:55:00,79.4,74.5,29.99,SE,130,8.0,13.0,85,0.00,,FEW,0.00,485.00,VWS V14.01,2013-04-04 13:55:00,
2013-04-04 09:57:00,79.5,74.6,29.99,East,98,6.0,13.0,85,0.00,,FEW,0.00,494.00,VWS V14.01,2013-04-04 13:57:00,
2013-04-04 10:00:00,79.5,74.6,29.99,ESE,123,9.0,13.0,85,0.00,,FEW,0.00,501.00,VWS V14.01,2013-04-04 14:00:00,
2013-04-04 10:02:00,79.7,74.8,29.99,SE,142,4.0,5.0,85,0.00,,FEW,0.00,506.00,VWS V14.01,2013-04-04 14:02:00,
2013-04-04 10:03:00,79.7,74.8,29.99,ESE,116,8.0,8.0,85,0.00,,FEW,0.00,513.00,VWS V14.01,2013-04-04 14:03:00,
2013-04-04 10:05:00,79.7,74.4,29.99,SE,146,6.0,10.0,84,0.00,,FEW,0.00,522.00,VWS V14.01,2013-04-04 14:05:00,
2013-04-04 10:07:00,79.8,74.5,29.99,SSE,157,9.0,12.0,84,0.00,,FEW,0.00,534.00,VWS V14.01,2013-04-04 14:07:00,
2013-04-04 10:08:00,79.8,74.5,29.99,ESE,123,8.0,12.0,84,0.00,,FEW,0.00,534.00,VWS V14.01,2013-04-04 14:08:00,
2013-04-04 10:10:00,79.9,74.6,29.99,SE,139,8.0,12.0,84,0.00,,FEW,0.00,550.00,VWS V14.01,2013-04-04 14:10:00,
2013-04-04 10:12:00,79.9,74.6,29.99,SE,132,7.0,12.0,84,0.00,,FEW,0.00,557.00,VWS V14.01,2013-04-04 14:12:00,
2013-04-04 10:13:00,80.0,74.7,29.99,SE,132,6.0,11.0,84,0.00,,FEW,0.00,570.00,VWS V14.01,2013-04-04 14:13:00,
2013-04-04 10:15:00,80.0,74.7,29.99,East,84,9.0,11.0,84,0.00,,FEW,0.00,478.00,VWS V14.01,2013-04-04 14:15:00,
2013-04-04 10:17:00,80.0,74.7,29.99,ESE,117,9.0,11.0,84,0.00,,FEW,0.00,452.00,VWS V14.01,2013-04-04 14:17:00,
2013-04-04 10:18:00,80.0,74.7,29.99,SE,137,7.0,11.0,84,0.00,,FEW,0.00,454.00,VWS V14.01,2013-04-04 14:18:00,
2013-04-04 10:19:00,80.0,74.7,29.99,South,170,12.0,12.0,84,0.00,,FEW,0.00,454.00,VWS V14.01,2013-04-04 14:19:00,
2013-04-04 10:20:00,80.1,74.8,29.99,SSE,159,7.0,12.0,84,0.00,,FEW,0.00,522.00,VWS V14.01,2013-04-04 14:20:00,
2013-04-04 10:22:00,80.1,74.8,29.99,SE,130,6.0,6.0,84,0.00,,FEW,0.00,538.00,VWS V14.01,2013-04-04 14:22:00,
2013-04-04 10:23:00,80.2,74.9,29.99,ESE,123,7.0,9.0,84,0.00,,FEW,0.00,483.00,VWS V14.01,2013-04-04 14:23:00,
2013-04-04 10:24:00,80.2,74.9,29.99,ESE,111,7.0,9.0,84,0.00,,FEW,0.00,582.00,VWS V14.01,2013-04-04 14:24:00,
2013-04-04 10:25:00,80.2,74.9,29.99,ESE,123,8.0,9.0,84,0.00,,FEW,0.00,564.00,VWS V14.01,2013-04-04 14:25:00,
2013-04-04 10:28:00,80.2,74.9,29.99,South,175,12.0,12.0,84,0.00,,FEW,0.00,606.00,VWS V14.01,2013-04-04 14:28:00,
2013-04-04 10:29:00,80.2,74.9,29.99,SE,139,5.0,12.0,84,0.00,,FEW,0.00,612.00,VWS V14.01,2013-04-04 14:29:00,
2013-04-04 10:30:00,80.2,74.9,29.99,SSE,163,6.0,12.0,84,0.00,,FEW,0.00,608.00,VWS V14.01,2013-04-04 14:30:00,
2013-04-04 10:32:00,80.3,75.0,29.99,SE,127,8.0,11.0,84,0.00,,FEW,0.00,610.00,VWS V14.01,2013-04-04 14:32:00,
2013-04-04 10:34:00,80.3,75.0,29.99,SE,142,9.0,11.0,84,0.00,,FEW,0.00,619.00,VWS V14.01,2013-04-04 14:34:00,
2013-04-04 10:35:00,80.3,75.0,29.99,SE,132,8.0,11.0,84,0.00,,FEW,0.00,622.00,VWS V14.01,2013-04-04 14:35:00,
2013-04-04 10:38:00,80.4,75.1,29.99,SSE,159,10.0,11.0,84,0.00,,FEW,0.00,631.00,VWS V14.01,2013-04-04 14:38:00,
2013-04-04 10:39:00,80.4,75.1,29.99,ESE,119,9.0,12.0,84,0.00,,FEW,0.00,638.00,VWS V14.01,2013-04-04 14:39:00,
2013-04-04 10:40:00,80.4,75.1,29.99,ESE,119,9.0,12.0,84,0.00,,FEW,0.00,638.00,VWS V14.01,2013-04-04 14:40:00,
2013-04-04 10:43:00,80.4,75.1,29.99,SE,127,4.0,9.0,84,0.00,,FEW,0.00,650.00,VWS V14.01,2013-04-04 14:43:00,
2013-04-04 10:45:00,80.4,75.1,29.99,ESE,105,9.0,10.0,84,0.00,,FEW,0.00,663.00,VWS V14.01,2013-04-04 14:45:00,
2013-04-04 10:48:00,80.3,75.0,29.99,SE,142,4.0,10.0,84,0.00,,FEW,0.00,666.00,VWS V14.01,2013-04-04 14:48:00,
2013-04-04 10:50:00,80.3,75.0,29.99,SSE,157,5.0,10.0,84,0.00,,FEW,0.00,673.00,VWS V14.01,2013-04-04 14:50:00,
2013-04-04 10:51:00,80.4,75.1,29.99,SE,145,5.0,10.0,84,0.00,,FEW,0.00,679.00,VWS V14.01,2013-04-04 14:51:00,
2013-04-04 10:53:00,80.5,75.2,29.99,SSE,161,9.0,9.0,84,0.00,,FEW,0.00,684.00,VWS V14.01,2013-04-04 14:53:00,
2013-04-04 10:55:00,80.3,74.7,29.99,ESE,118,5.0,10.0,83,0.00,,FEW,0.00,691.00,VWS V14.01,2013-04-04 14:55:00,
2013-04-04 10:56:00,80.2,74.9,29.99,ESE,114,5.0,10.0,84,0.00,,FEW,0.00,693.00,VWS V14.01,2013-04-04 14:56:00,
2013-04-04 10:59:00,80.1,74.8,29.99,SE,146,7.0,11.0,84,0.00,,FEW,0.00,694.00,VWS V14.01,2013-04-04 14:59:00,
2013-04-04 11:00:00,80.2,74.9,29.99,SE,137,7.0,11.0,84,0.00,,FEW,0.00,696.00,VWS V14.01,2013-04-04 15:00:00,
2013-04-04 11:01:00,80.2,74.9,29.99,SSE,161,5.0,11.0,84,0.00,,FEW,0.00,696.00,VWS V14.01,2013-04-04 15:01:00,
2013-04-04 11:05:00,80.3,75.0,29.99,SE,128,8.0,9.0,84,0.00,,FEW,0.00,710.00,VWS V14.01,2013-04-04 15:05:00,
2013-04-04 11:07:00,80.5,75.2,29.99,SE,128,6.0,9.0,84,0.00,,FEW,0.00,707.00,VWS V14.01,2013-04-04 15:07:00,
2013-04-04 11:10:00,80.7,75.4,29.99,ESE,105,7.0,9.0,84,0.00,,FEW,0.00,707.00,VWS V14.01,2013-04-04 15:10:00,
2013-04-04 11:12:00,80.7,75.4,29.99,SSE,151,6.0,10.0,84,0.00,,FEW,0.00,719.00,VWS V14.01,2013-04-04 15:12:00,
2013-04-04 11:15:00,80.7,75.1,29.99,East,101,7.0,11.0,83,0.00,,FEW,0.00,745.00,VWS V14.01,2013-04-04 15:15:00,
2013-04-04 11:16:00,80.7,75.1,29.99,SSE,159,4.0,11.0,83,0.00,,FEW,0.00,745.00,VWS V14.01,2013-04-04 15:16:00,
2013-04-04 11:17:00,80.8,75.5,29.99,SE,126,8.0,11.0,84,0.00,,FEW,0.00,745.00,VWS V14.01,2013-04-04 15:17:00,
2013-04-04 11:20:00,80.9,75.3,29.99,SE,138,5.0,11.0,83,0.00,,FEW,0.00,422.00,VWS V14.01,2013-04-04 15:20:00,
2013-04-04 11:21:00,80.9,75.3,29.99,ESE,115,4.0,11.0,83,0.00,,FEW,0.00,425.00,VWS V14.01,2013-04-04 15:21:00,
2013-04-04 11:22:00,80.9,75.3,29.99,SE,138,7.0,11.0,83,0.00,,FEW,0.00,425.00,VWS V14.01,2013-04-04 15:22:00,
2013-04-04 11:25:00,80.9,75.3,29.99,East,98,7.0,11.0,83,0.00,,FEW,0.00,795.00,VWS V14.01,2013-04-04 15:25:00,
2013-04-04 11:26:00,80.9,75.3,29.99,SE,128,6.0,11.0,83,0.00,,FEW,0.00,795.00,VWS V14.01,2013-04-04 15:26:00,
2013-04-04 11:27:00,80.9,75.3,29.99,ESE,122,7.0,11.0,83,0.00,,FEW,0.00,795.00,VWS V14.01,2013-04-04 15:27:00,
2013-04-04 11:28:00,80.9,75.3,29.99,SE,134,6.0,11.0,83,0.00,,FEW,0.00,795.00,VWS V14.01,2013-04-04 15:28:00,
2013-04-04 11:30:00,80.9,75.3,29.99,SE,131,10.0,11.0,83,0.00,,FEW,0.00,253.00,VWS V14.01,2013-04-04 15:30:00,
2013-04-04 11:32:00,80.9,75.3,29.99,SE,128,4.0,11.0,83,0.00,,FEW,0.00,253.00,VWS V14.01,2013-04-04 15:32:00,
2013-04-04 11:33:00,80.9,75.3,29.99,South,173,10.0,10.0,83,0.00,,FEW,0.00,480.00,VWS V14.01,2013-04-04 15:33:00,
2013-04-04 11:34:00,81.0,75.3,29.99,SSE,148,9.0,10.0,83,0.00,,FEW,0.00,824.00,VWS V14.01,2013-04-04 15:34:00,
2013-04-04 11:35:00,81.0,75.3,29.99,SE,130,6.0,10.0,83,0.00,,FEW,0.00,754.00,VWS V14.01,2013-04-04 15:35:00,
2013-04-04 11:37:00,81.1,75.4,29.99,SE,138,5.0,12.0,83,0.00,,FEW,0.00,840.00,VWS V14.01,2013-04-04 15:37:00,
2013-04-04 11:38:00,81.1,75.4,29.99,SSE,158,7.0,12.0,83,0.00,,FEW,0.00,840.00,VWS V14.01,2013-04-04 15:38:00,
2013-04-04 11:39:00,81.1,75.4,29.99,SSE,167,9.0,12.0,83,0.00,,FEW,0.00,840.00,VWS V14.01,2013-04-04 15:39:00,
2013-04-04 11:41:00,81.2,75.6,29.99,SSE,151,7.0,12.0,83,0.00,,FEW,0.00,840.00,VWS V14.01,2013-04-04 15:41:00,
2013-04-04 11:42:00,81.2,75.6,29.99,SSE,151,4.0,12.0,83,0.00,,FEW,0.00,840.00,VWS V14.01,2013-04-04 15:42:00,
2013-04-04 11:43:00,81.2,75.6,29.99,SSE,161,8.0,9.0,83,0.00,,FEW,0.00,847.00,VWS V14.01,2013-04-04 15:43:00,
2013-04-04 11:44:00,81.1,75.4,29.99,SSW,202,5.0,9.0,83,0.00,,FEW,0.00,828.00,VWS V14.01,2013-04-04 15:44:00,
2013-04-04 11:46:00,81.0,75.3,29.99,SE,144,8.0,9.0,83,0.00,,FEW,0.00,828.00,VWS V14.01,2013-04-04 15:46:00,
2013-04-04 11:47:00,81.0,75.3,29.99,SSE,150,7.0,9.0,83,0.00,,FEW,0.00,828.00,VWS V14.01,2013-04-04 15:47:00,
2013-04-04 11:48:00,80.9,75.3,29.99,ESE,117,7.0,11.0,83,0.00,,FEW,0.00,828.00,VWS V14.01,2013-04-04 15:48:00,
2013-04-04 11:50:00,80.8,75.2,29.99,ESE,106,9.0,11.0,83,0.00,,FEW,0.00,782.00,VWS V14.01,2013-04-04 15:50:00,
2013-04-04 11:51:00,80.9,75.3,29.99,SE,139,4.0,11.0,83,0.00,,FEW,0.00,809.00,VWS V14.01,2013-04-04 15:51:00,
2013-04-04 11:52:00,80.9,75.3,29.99,SE,142,3.0,11.0,83,0.00,,FEW,0.00,817.00,VWS V14.01,2013-04-04 15:52:00,
2013-04-04 11:53:00,81.0,75.7,29.99,SE,128,5.0,10.0,84,0.00,,FEW,0.00,821.00,VWS V14.01,2013-04-04 15:53:00,
2013-04-04 11:55:00,81.1,75.4,29.99,SSE,167,4.0,10.0,83,0.00,,FEW,0.00,854.00,VWS V14.01,2013-04-04 15:55:00,
2013-04-04 11:57:00,81.3,75.7,29.99,SE,136,3.0,10.0,83,0.00,,FEW,0.00,870.00,VWS V14.01,2013-04-04 15:57:00,
2013-04-04 11:59:00,81.4,75.7,29.99,SSE,148,6.0,10.0,83,0.00,,FEW,0.00,842.00,VWS V14.01,2013-04-04 15:59:00,
2013-04-04 12:00:00,81.5,75.8,29.99,SSW,200,6.0,10.0,83,0.00,,FEW,0.00,868.00,VWS V14.01,2013-04-04 16:00:00,
2013-04-04 12:02:00,81.6,75.6,29.99,SE,136,2.0,4.0,82,0.00,,FEW,0.00,867.00,VWS V14.01,2013-04-04 16:02:00,
2013-04-04 12:04:00,81.7,75.7,29.99,ESE,116,5.0,7.0,82,0.00,,FEW,0.00,867.00,VWS V14.01,2013-04-04 16:04:00,
2013-04-04 12:05:00,81.7,75.7,29.99,SE,137,5.0,7.0,82,0.00,,FEW,0.00,696.00,VWS V14.01,2013-04-04 16:05:00,
2013-04-04 12:07:00,81.6,75.6,29.99,SSE,151,3.0,8.0,82,0.00,,FEW,0.00,881.00,VWS V14.01,2013-04-04 16:07:00,
2013-04-04 12:09:00,81.6,75.6,29.99,South,174,1.0,8.0,82,0.00,,FEW,0.00,946.00,VWS V14.01,2013-04-04 16:09:00,
2013-04-04 12:10:00,81.7,75.7,29.99,South,182,1.0,8.0,82,0.00,,FEW,0.00,916.00,VWS V14.01,2013-04-04 16:10:00,
2013-04-04 12:12:00,81.9,75.9,29.99,SSE,157,5.0,6.0,82,0.00,,FEW,0.00,547.00,VWS V14.01,2013-04-04 16:12:00,
2013-04-04 12:13:00,81.9,75.9,29.99,SSE,157,5.0,6.0,82,0.00,,FEW,0.00,547.00,VWS V14.01,2013-04-04 16:13:00,
2013-04-04 12:14:00,82.0,76.0,29.99,SSE,163,4.0,10.0,82,0.00,,FEW,0.00,594.00,VWS V14.01,2013-04-04 16:14:00,
2013-04-04 12:15:00,82.1,76.1,29.99,South,181,7.0,10.0,82,0.00,,FEW,0.00,594.00,VWS V14.01,2013-04-04 16:15:00,
2013-04-04 12:18:00,81.9,75.5,30.00,East,85,6.0,10.0,81,0.00,,FEW,0.00,573.00,VWS V14.01,2013-04-04 16:18:00,
2013-04-04 12:19:00,81.8,75.4,30.00,SSE,152,4.0,10.0,81,0.00,,FEW,0.00,501.00,VWS V14.01,2013-04-04 16:19:00,
2013-04-04 12:20:00,81.6,75.6,30.00,South,176,7.0,10.0,82,0.00,,FEW,0.00,483.00,VWS V14.01,2013-04-04 16:20:00,
2013-04-04 12:23:00,81.4,75.0,30.00,SE,141,9.0,9.0,81,0.00,,FEW,0.00,543.00,VWS V14.01,2013-04-04 16:23:00,
2013-04-04 12:24:00,81.2,75.2,30.00,South,170,3.0,9.0,82,0.00,,FEW,0.00,671.00,VWS V14.01,2013-04-04 16:24:00,
2013-04-04 12:25:00,81.1,75.1,30.00,South,170,5.0,9.0,82,0.00,,FEW,0.00,684.00,VWS V14.01,2013-04-04 16:25:00,
2013-04-04 12:28:00,81.0,75.3,30.00,ESE,119,8.0,9.0,83,0.00,,FEW,0.00,708.00,VWS V14.01,2013-04-04 16:28:00,
2013-04-04 12:29:00,80.9,75.3,30.00,SE,132,8.0,10.0,83,0.00,,FEW,0.00,708.00,VWS V14.01,2013-04-04 16:29:00,
2013-04-04 12:30:00,80.8,75.2,30.00,SE,126,4.0,10.0,83,0.00,,FEW,0.00,506.00,VWS V14.01,2013-04-04 16:30:00,
2013-04-04 12:33:00,80.8,75.2,29.99,SSE,158,4.0,7.0,83,0.00,,FEW,0.00,812.00,VWS V14.01,2013-04-04 16:33:00,
2013-04-04 12:34:00,80.9,75.6,29.99,SE,140,4.0,8.0,84,0.00,,FEW,0.00,812.00,VWS V14.01,2013-04-04 16:34:00,
2013-04-04 12:35:00,80.9,75.3,29.99,South,188,5.0,8.0,83,0.00,,FEW,0.00,812.00,VWS V14.01,2013-04-04 16:35:00,
2013-04-04 12:38:00,80.8,75.2,29.99,South,186,7.0,9.0,83,0.00,,FEW,0.00,548.00,VWS V14.01,2013-04-04 16:38:00,
2013-04-04 12:39:00,80.8,75.2,29.99,ESE,121,5.0,9.0,83,0.00,,FEW,0.00,548.00,VWS V14.01,2013-04-04 16:39:00,
2013-04-04 12:40:00,80.8,75.2,29.99,South,174,2.0,9.0,83,0.00,,FEW,0.00,534.00,VWS V14.01,2013-04-04 16:40:00,
2013-04-04 12:43:00,80.7,75.1,29.99,SSE,158,5.0,5.0,83,0.00,,FEW,0.00,476.00,VWS V14.01,2013-04-04 16:43:00,
2013-04-04 12:44:00,80.7,75.4,29.99,SE,134,7.0,7.0,84,0.00,,FEW,0.00,545.00,VWS V14.01,2013-04-04 16:44:00,
2013-04-04 12:45:00,80.7,75.4,29.99,SE,146,6.0,10.0,84,0.00,,FEW,0.00,512.00,VWS V14.01,2013-04-04 16:45:00,
2013-04-04 12:46:00,80.7,75.4,29.99,SE,142,2.0,10.0,84,0.00,,FEW,0.00,504.00,VWS V14.01,2013-04-04 16:46:00,
2013-04-04 12:48:00,80.8,75.5,29.99,SE,143,6.0,10.0,84,0.00,,FEW,0.00,550.00,VWS V14.01,2013-04-04 16:48:00,
2013-04-04 12:49:00,80.9,75.6,29.99,ESE,120,4.0,10.0,84,0.00,,FEW,0.00,550.00,VWS V14.01,2013-04-04 16:49:00,
2013-04-04 12:50:00,80.9,75.6,29.99,SSE,159,3.0,10.0,84,0.00,,FEW,0.00,550.00,VWS V14.01,2013-04-04 16:50:00,
2013-04-04 12:52:00,80.9,75.3,29.99,South,184,6.0,10.0,83,0.00,,FEW,0.00,594.00,VWS V14.01,2013-04-04 16:52:00,
2013-04-04 12:53:00,81.0,75.7,29.99,SE,134,4.0,7.0,84,0.00,,FEW,0.00,554.00,VWS V14.01,2013-04-04 16:53:00,
2013-04-04 12:54:00,81.1,75.8,29.99,SSE,167,11.0,11.0,84,0.00,,FEW,0.00,533.00,VWS V14.01,2013-04-04 16:54:00,
2013-04-04 12:55:00,81.1,75.4,29.99,SSE,156,9.0,11.0,83,0.00,,FEW,0.00,533.00,VWS V14.01,2013-04-04 16:55:00,
2013-04-04 12:57:00,81.0,75.3,29.99,SSE,158,8.0,11.0,83,0.00,,FEW,0.00,617.00,VWS V14.01,2013-04-04 16:57:00,
2013-04-04 12:58:00,80.9,75.3,29.99,SE,133,5.0,12.0,83,0.00,,FEW,0.00,617.00,VWS V14.01,2013-04-04 16:58:00,
2013-04-04 13:00:00,81.0,75.3,29.99,SE,138,8.0,12.0,83,0.00,,FEW,0.00,638.00,VWS V14.01,2013-04-04 17:00:00,
2013-04-04 13:02:00,80.9,75.3,29.98,SSE,155,11.0,12.0,83,0.00,,FEW,0.00,512.00,VWS V14.01,2013-04-04 17:02:00,
2013-04-04 13:04:00,80.9,75.6,29.98,SSE,163,5.0,11.0,84,0.00,,FEW,0.00,513.00,VWS V14.01,2013-04-04 17:04:00,
2013-04-04 13:05:00,80.9,75.6,29.98,SSE,153,5.0,11.0,84,0.00,,FEW,0.00,513.00,VWS V14.01,2013-04-04 17:05:00,
2013-04-04 13:06:00,80.9,75.6,29.98,SSE,150,8.0,11.0,84,0.00,,FEW,0.00,513.00,VWS V14.01,2013-04-04 17:06:00,
2013-04-04 13:07:00,81.0,75.7,29.98,SSE,154,4.0,12.0,84,0.00,,FEW,0.00,925.00,VWS V14.01,2013-04-04 17:07:00,
2013-04-04 13:09:00,81.1,75.8,29.98,SSE,154,5.0,12.0,84,0.00,,FEW,0.00,840.00,VWS V14.01,2013-04-04 17:09:00,
2013-04-04 13:10:00,81.3,76.0,29.98,SSE,156,4.0,12.0,84,0.00,,FEW,0.00,837.00,VWS V14.01,2013-04-04 17:10:00,
2013-04-04 13:11:00,81.3,76.0,29.98,SSE,152,5.0,12.0,84,0.00,,FEW,0.00,870.00,VWS V14.01,2013-04-04 17:11:00,
2013-04-04 13:12:00,81.2,75.6,29.98,SE,136,2.0,3.0,83,0.00,,FEW,0.00,898.00,VWS V14.01,2013-04-04 17:12:00,
2013-04-04 13:14:00,81.6,75.9,29.98,SE,141,7.0,10.0,83,0.00,,FEW,0.00,946.00,VWS V14.01,2013-04-04 17:14:00,
2013-04-04 13:15:00,81.5,75.8,29.98,South,175,6.0,11.0,83,0.00,,FEW,0.00,951.00,VWS V14.01,2013-04-04 17:15:00,
2013-04-04 13:16:00,81.5,75.8,29.98,SE,144,11.0,11.0,83,0.00,,FEW,0.00,951.00,VWS V14.01,2013-04-04 17:16:00,
2013-04-04 13:17:00,81.4,75.7,29.96,SSE,161,4.0,11.0,83,0.00,,FEW,0.00,939.00,VWS V14.01,2013-04-04 17:17:00,
2013-04-04 13:19:00,81.6,75.9,29.96,SSE,153,4.0,11.0,83,0.00,,FEW,0.00,870.00,VWS V14.01,2013-04-04 17:19:00,
2013-04-04 13:20:00,81.7,76.0,29.96,SE,130,2.0,11.0,83,0.00,,FEW,0.00,939.00,VWS V14.01,2013-04-04 17:20:00,
2013-04-04 13:22:00,81.8,75.8,29.96,SE,134,5.0,12.0,82,0.00,,FEW,0.00,933.00,VWS V14.01,2013-04-04 17:22:00,
2013-04-04 13:25:00,81.9,75.9,29.96,SSE,156,5.0,7.0,82,0.00,,FEW,0.00,907.00,VWS V14.01,2013-04-04 17:25:00,
2013-04-04 13:26:00,82.0,76.0,29.96,SE,127,7.0,8.0,82,0.00,,FEW,0.00,891.00,VWS V14.01,2013-04-04 17:26:00,
2013-04-04 13:27:00,81.9,75.9,29.96,SSE,151,4.0,9.0,82,0.00,,FEW,0.00,865.00,VWS V14.01,2013-04-04 17:27:00,
2013-04-04 13:30:00,82.2,76.2,29.96,SSE,154,10.0,10.0,82,0.00,,FEW,0.00,870.00,VWS V14.01,2013-04-04 17:30:00,
2013-04-04 13:32:00,82.0,76.0,29.97,SSE,163,5.0,10.0,82,0.00,,FEW,0.00,863.00,VWS V14.01,2013-04-04 17:32:00,
2013-04-04 13:33:00,82.0,76.0,29.97,South,173,9.0,9.0,82,0.00,,FEW,0.00,882.00,VWS V14.01,2013-04-04 17:33:00,
2013-04-04 13:35:00,82.2,76.2,29.97,SSE,165,7.0,9.0,82,0.00,,FEW,0.00,919.00,VWS V14.01,2013-04-04 17:35:00,
2013-04-04 13:37:00,82.3,75.9,29.97,SSE,149,6.0,10.0,81,0.00,,FEW,0.00,912.00,VWS V14.01,2013-04-04 17:37:00,
2013-04-04 13:38:00,82.2,75.8,29.97,SE,124,9.0,10.0,81,0.00,,FEW,0.00,939.00,VWS V14.01,2013-04-04 17:38:00,
2013-04-04 13:40:00,82.2,76.2,29.97,SE,144,2.0,10.0,82,0.00,,FEW,0.00,912.00,VWS V14.01,2013-04-04 17:40:00,
2013-04-04 13:42:00,82.4,76.4,29.97,SSE,159,3.0,10.0,82,0.00,,FEW,0.00,960.00,VWS V14.01,2013-04-04 17:42:00,
2013-04-04 13:43:00,82.7,76.3,29.97,South,180,5.0,6.0,81,0.00,,FEW,0.00,963.00,VWS V14.01,2013-04-04 17:43:00,
2013-04-04 13:44:00,82.7,76.3,29.97,South,187,6.0,9.0,81,0.00,,FEW,0.00,967.00,VWS V14.01,2013-04-04 17:44:00,
2013-04-04 13:46:00,82.7,76.3,29.96,SE,132,6.0,9.0,81,0.00,,FEW,0.00,940.00,VWS V14.01,2013-04-04 17:46:00,
2013-04-04 13:48:00,82.7,76.3,29.96,SSE,155,3.0,9.0,81,0.00,,FEW,0.00,898.00,VWS V14.01,2013-04-04 17:48:00,
2013-04-04 13:49:00,82.7,76.3,29.96,SSE,165,4.0,9.0,81,0.00,,FEW,0.00,937.00,VWS V14.01,2013-04-04 17:49:00,
2013-04-04 13:50:00,82.7,76.3,29.96,SE,146,6.0,9.0,81,0.00,,FEW,0.00,949.00,VWS V14.01,2013-04-04 17:50:00,
2013-04-04 13:51:00,82.7,75.9,29.96,SSE,150,5.0,9.0,80,0.00,,FEW,0.00,939.00,VWS V14.01,2013-04-04 17:51:00,
2013-04-04 13:53:00,82.7,76.3,29.96,South,187,8.0,8.0,81,0.00,,FEW,0.00,939.00,VWS V14.01,2013-04-04 17:53:00,
2013-04-04 13:54:00,82.7,76.3,29.96,SE,128,4.0,8.0,81,0.00,,FEW,0.00,939.00,VWS V14.01,2013-04-04 17:54:00,
2013-04-04 13:55:00,83.0,76.2,29.96,SSE,150,6.0,9.0,80,0.00,,FEW,0.00,933.00,VWS V14.01,2013-04-04 17:55:00,
2013-04-04 13:57:00,82.9,76.1,29.96,ESE,123,7.0,10.0,80,0.00,,FEW,0.00,889.00,VWS V14.01,2013-04-04 17:57:00,
2013-04-04 13:59:00,82.7,75.9,29.96,ESE,107,2.0,10.0,80,0.00,,FEW,0.00,997.00,VWS V14.01,2013-04-04 17:59:00,
2013-04-04 14:00:00,82.7,75.9,29.96,ESE,119,4.0,10.0,80,0.00,,FEW,0.00,1000.00,VWS V14.01,2013-04-04 18:00:00,
2013-04-04 14:02:00,82.8,76.0,29.97,South,173,4.0,10.0,80,0.00,,FEW,0.00,1000.00,VWS V14.01,2013-04-04 18:02:00,
2013-04-04 14:04:00,82.9,76.1,29.97,South,190,3.0,5.0,80,0.00,,FEW,0.00,1025.00,VWS V14.01,2013-04-04 18:04:00,
2013-04-04 14:05:00,83.2,76.4,29.97,ESE,120,4.0,6.0,80,0.00,,FEW,0.00,993.00,VWS V14.01,2013-04-04 18:05:00,
2013-04-04 14:07:00,83.3,76.1,29.97,SE,138,8.0,8.0,79,0.00,,FEW,0.00,972.00,VWS V14.01,2013-04-04 18:07:00,
2013-04-04 14:09:00,83.3,76.1,29.97,SW,221,6.0,8.0,79,0.00,,FEW,0.00,984.00,VWS V14.01,2013-04-04 18:09:00,
2013-04-04 14:11:00,83.2,76.0,29.97,ESE,114,2.0,8.0,79,0.00,,FEW,0.00,904.00,VWS V14.01,2013-04-04 18:11:00,
2013-04-04 14:12:00,83.0,75.8,29.97,SE,136,6.0,7.0,79,0.00,,FEW,0.00,976.00,VWS V14.01,2013-04-04 18:12:00,
2013-04-04 14:14:00,82.8,75.6,29.97,ESE,121,5.0,7.0,79,0.00,,FEW,0.00,911.00,VWS V14.01,2013-04-04 18:14:00,
2013-04-04 14:16:00,82.7,75.9,29.97,SE,129,4.0,10.0,80,0.00,,FEW,0.00,930.00,VWS V14.01,2013-04-04 18:16:00,
2013-04-04 14:17:00,82.9,76.1,29.97,South,174,3.0,10.0,80,0.00,,FEW,0.00,940.00,VWS V14.01,2013-04-04 18:17:00,
2013-04-04 14:19:00,83.2,76.4,29.97,SSW,211,7.0,10.0,80,0.00,,FEW,0.00,972.00,VWS V14.01,2013-04-04 18:19:00,
2013-04-04 14:20:00,83.2,76.4,29.97,SSW,211,7.0,10.0,80,0.00,,FEW,0.00,972.00,VWS V14.01,2013-04-04 18:20:00,
2013-04-04 14:22:00,83.1,75.9,29.97,SSE,155,6.0,10.0,79,0.00,,FEW,0.00,833.00,VWS V14.01,2013-04-04 18:22:00,
2013-04-04 14:25:00,83.0,76.2,29.97,SE,146,3.0,7.0,80,0.00,,FEW,0.00,1020.00,VWS V14.01,2013-04-04 18:25:00,
2013-04-04 14:26:00,83.0,76.2,29.97,South,178,4.0,7.0,80,0.00,,FEW,0.00,1020.00,VWS V14.01,2013-04-04 18:26:00,
2013-04-04 14:27:00,83.0,76.2,29.97,SE,145,1.0,7.0,80,0.00,,FEW,0.00,1020.00,VWS V14.01,2013-04-04 18:27:00,
2013-04-04 14:30:00,83.2,76.0,29.97,SE,146,4.0,9.0,79,0.00,,FEW,0.00,995.00,VWS V14.01,2013-04-04 18:30:00,
2013-04-04 14:31:00,83.2,76.0,29.97,SE,137,5.0,9.0,79,0.00,,FEW,0.00,1030.00,VWS V14.01,2013-04-04 18:31:00,
2013-04-04 14:32:00,83.2,76.4,29.97,SSE,167,5.0,9.0,80,0.00,,FEW,0.00,1030.00,VWS V14.01,2013-04-04 18:32:00,
2013-04-04 14:33:00,83.1,75.9,29.97,SE,135,5.0,6.0,79,0.00,,FEW,0.00,1030.00,VWS V14.01,2013-04-04 18:33:00,
2013-04-04 14:36:00,82.9,76.1,29.97,SSE,161,3.0,7.0,80,0.00,,FEW,0.00,1030.00,VWS V14.01,2013-04-04 18:36:00,
2013-04-04 14:37:00,82.8,76.0,29.97,South,188,6.0,7.0,80,0.00,,FEW,0.00,605.00,VWS V14.01,2013-04-04 18:37:00,
2013-04-04 14:38:00,83.1,76.3,29.97,South,181,3.0,7.0,80,0.00,,FEW,0.00,1046.00,VWS V14.01,2013-04-04 18:38:00,
2013-04-04 14:41:00,83.5,76.3,29.97,South,190,5.0,7.0,79,0.00,,FEW,0.00,805.00,VWS V14.01,2013-04-04 18:41:00,
2013-04-04 14:42:00,83.5,76.3,29.97,SSE,148,3.0,7.0,79,0.00,,FEW,0.00,805.00,VWS V14.01,2013-04-04 18:42:00,
2013-04-04 14:43:00,83.6,76.4,29.97,SSW,192,5.0,5.0,79,0.00,,FEW,0.00,805.00,VWS V14.01,2013-04-04 18:43:00,
2013-04-04 14:46:00,83.6,76.8,29.97,SE,142,3.0,6.0,80,0.00,,FEW,0.00,1032.00,VWS V14.01,2013-04-04 18:46:00,
2013-04-04 14:47:00,83.6,76.8,29.97,ESE,103,3.0,8.0,80,0.00,,FEW,0.00,1032.00,VWS V14.01,2013-04-04 18:47:00,
2013-04-04 14:48:00,83.5,76.3,29.97,SSE,151,4.0,8.0,79,0.00,,FEW,0.00,1032.00,VWS V14.01,2013-04-04 18:48:00,
2013-04-04 14:49:00,83.4,76.2,29.97,SSE,153,5.0,8.0,79,0.00,,FEW,0.00,912.00,VWS V14.01,2013-04-04 18:49:00,
2013-04-04 14:51:00,83.3,76.5,29.97,SE,128,2.0,8.0,80,0.00,,FEW,0.00,879.00,VWS V14.01,2013-04-04 18:51:00,
2013-04-04 14:52:00,83.4,76.6,29.97,ESE,110,2.0,8.0,80,0.00,,FEW,0.00,879.00,VWS V14.01,2013-04-04 18:52:00,
2013-04-04 14:53:00,83.6,76.8,29.97,South,184,4.0,6.0,80,0.00,,FEW,0.00,940.00,VWS V14.01,2013-04-04 18:53:00,
2013-04-04 14:54:00,83.7,76.9,29.97,SE,133,3.0,6.0,80,0.00,,FEW,0.00,983.00,VWS V14.01,2013-04-04 18:54:00,
2013-04-04 14:56:00,83.6,76.4,29.97,South,178,6.0,7.0,79,0.00,,FEW,0.00,923.00,VWS V14.01,2013-04-04 18:56:00,
2013-04-04 14:57:00,83.6,76.4,29.97,SSE,159,8.0,8.0,79,0.00,,FEW,0.00,923.00,VWS V14.01,2013-04-04 18:57:00,
2013-04-04 14:58:00,83.5,76.3,29.97,SW,217,4.0,8.0,79,0.00,,FEW,0.00,923.00,VWS V14.01,2013-04-04 18:58:00,
2013-04-04 14:59:00,83.5,76.3,29.97,South,184,7.0,8.0,79,0.00,,FEW,0.00,944.00,VWS V14.01,2013-04-04 18:59:00,
2013-04-04 15:02:00,83.2,76.4,29.96,SE,138,4.0,10.0,80,0.00,,FEW,0.00,870.00,VWS V14.01,2013-04-04 19:02:00,
2013-04-04 15:04:00,83.2,76.4,29.96,South,174,4.0,7.0,80,0.00,,FEW,0.00,415.00,VWS V14.01,2013-04-04 19:04:00,
2013-04-04 15:05:00,83.2,76.4,29.96,ESE,121,3.0,7.0,80,0.00,,FEW,0.00,330.00,VWS V14.01,2013-04-04 19:05:00,
2013-04-04 15:07:00,83.1,76.3,29.96,SSE,153,2.0,7.0,80,0.00,,FEW,0.00,339.00,VWS V14.01,2013-04-04 19:07:00,
2013-04-04 15:09:00,82.7,75.9,29.96,South,178,3.0,7.0,80,0.00,,FEW,0.00,339.00,VWS V14.01,2013-04-04 19:09:00,
2013-04-04 15:10:00,82.6,76.2,29.96,SSE,158,5.0,7.0,81,0.00,,FEW,0.00,896.00,VWS V14.01,2013-04-04 19:10:00,
2013-04-04 15:12:00,82.6,76.2,29.96,SSE,162,6.0,7.0,81,0.00,,FEW,0.00,860.00,VWS V14.01,2013-04-04 19:12:00,
2013-04-04 15:15:00,82.9,76.5,29.96,South,185,6.0,9.0,81,0.00,,FEW,0.00,944.00,VWS V14.01,2013-04-04 19:15:00,
2013-04-04 15:17:00,83.0,76.6,29.96,South,173,3.0,9.0,81,0.00,,FEW,0.00,947.00,VWS V14.01,2013-04-04 19:17:00,
2013-04-04 15:20:00,83.2,76.4,29.96,SSE,167,7.0,9.0,80,0.00,,FEW,0.00,858.00,VWS V14.01,2013-04-04 19:20:00,
2013-04-04 15:22:00,83.2,76.4,29.96,South,181,3.0,11.0,80,0.00,,FEW,0.00,854.00,VWS V14.01,2013-04-04 19:22:00,
2013-04-04 15:25:00,82.9,76.5,29.96,SE,137,6.0,7.0,81,0.00,,FEW,0.00,589.00,VWS V14.01,2013-04-04 19:25:00,
2013-04-04 15:27:00,82.9,76.5,29.96,SSE,161,7.0,8.0,81,0.00,,FEW,0.00,842.00,VWS V14.01,2013-04-04 19:27:00,
2013-04-04 15:28:00,82.8,76.4,29.96,SSW,204,6.0,8.0,81,0.00,,FEW,0.00,851.00,VWS V14.01,2013-04-04 19:28:00,
2013-04-04 15:30:00,82.7,76.3,29.96,SSE,153,4.0,8.0,81,0.00,,FEW,0.00,826.00,VWS V14.01,2013-04-04 19:30:00,
2013-04-04 15:31:00,82.7,76.3,29.96,SSE,155,5.0,8.0,81,0.00,,FEW,0.00,826.00,VWS V14.01,2013-04-04 19:31:00,
2013-04-04 15:32:00,82.6,76.2,29.96,ESE,115,3.0,4.0,81,0.00,,FEW,0.00,763.00,VWS V14.01,2013-04-04 19:32:00,
2013-04-04 15:33:00,82.6,76.6,29.96,SW,227,5.0,5.0,82,0.00,,FEW,0.00,763.00,VWS V14.01,2013-04-04 19:33:00,
2013-04-04 15:36:00,82.8,76.8,29.96,South,172,8.0,8.0,82,0.00,,FEW,0.00,380.00,VWS V14.01,2013-04-04 19:36:00,
2013-04-04 15:37:00,82.6,76.2,29.96,SSE,152,5.0,8.0,81,0.00,,FEW,0.00,374.00,VWS V14.01,2013-04-04 19:37:00,
2013-04-04 15:38:00,82.5,76.1,29.96,SSE,162,4.0,8.0,81,0.00,,FEW,0.00,374.00,VWS V14.01,2013-04-04 19:38:00,
2013-04-04 15:41:00,82.2,76.2,29.96,SSE,163,5.0,8.0,82,0.00,,FEW,0.00,768.00,VWS V14.01,2013-04-04 19:41:00,
2013-04-04 15:42:00,82.3,76.3,29.96,South,190,5.0,7.0,82,0.00,,FEW,0.00,751.00,VWS V14.01,2013-04-04 19:42:00,
2013-04-04 15:43:00,82.3,76.3,29.96,South,186,7.0,7.0,82,0.00,,FEW,0.00,425.00,VWS V14.01,2013-04-04 19:43:00,
2013-04-04 15:46:00,82.3,76.6,29.96,South,179,5.0,7.0,83,0.00,,FEW,0.00,689.00,VWS V14.01,2013-04-04 19:46:00,
2013-04-04 15:47:00,82.3,76.3,29.96,SSE,159,3.0,7.0,82,0.00,,FEW,0.00,761.00,VWS V14.01,2013-04-04 19:47:00,
2013-04-04 15:48:00,82.2,76.2,29.96,SSE,162,7.0,7.0,82,0.00,,FEW,0.00,761.00,VWS V14.01,2013-04-04 19:48:00,
2013-04-04 15:51:00,82.2,76.2,29.96,SE,133,5.0,7.0,82,0.00,,FEW,0.00,594.00,VWS V14.01,2013-04-04 19:51:00,
2013-04-04 15:52:00,82.2,76.2,29.96,SSE,148,3.0,7.0,82,0.00,,FEW,0.00,594.00,VWS V14.01,2013-04-04 19:52:00,
2013-04-04 15:53:00,82.3,76.3,29.96,South,184,4.0,8.0,82,0.00,,FEW,0.00,721.00,VWS V14.01,2013-04-04 19:53:00,
2013-04-04 15:56:00,82.4,76.4,29.96,SSE,159,5.0,8.0,82,0.00,,FEW,0.00,652.00,VWS V14.01,2013-04-04 19:56:00,
2013-04-04 15:57:00,82.4,76.4,29.96,SE,144,6.0,8.0,82,0.00,,FEW,0.00,689.00,VWS V14.01,2013-04-04 19:57:00,
2013-04-04 15:59:00,82.4,76.4,29.96,South,177,3.0,8.0,82,0.00,,FEW,0.00,689.00,VWS V14.01,2013-04-04 19:59:00,
2013-04-04 16:01:00,82.5,76.4,29.94,SE,146,2.0,8.0,82,0.00,,FEW,0.00,793.00,VWS V14.01,2013-04-04 20:01:00,
2013-04-04 16:02:00,82.5,76.4,29.94,SSE,166,4.0,8.0,82,0.00,,FEW,0.00,786.00,VWS V14.01,2013-04-04 20:02:00,
2013-04-04 16:03:00,82.5,76.4,29.94,South,186,5.0,5.0,82,0.00,,FEW,0.00,786.00,VWS V14.01,2013-04-04 20:03:00,
2013-04-04 16:04:00,82.6,76.6,29.94,South,183,5.0,5.0,82,0.00,,FEW,0.00,773.00,VWS V14.01,2013-04-04 20:04:00,
2013-04-04 16:07:00,82.6,76.6,29.94,SSW,194,5.0,8.0,82,0.00,,FEW,0.00,752.00,VWS V14.01,2013-04-04 20:07:00,
2013-04-04 16:08:00,82.6,76.6,29.94,South,183,5.0,8.0,82,0.00,,FEW,0.00,724.00,VWS V14.01,2013-04-04 20:08:00,
2013-04-04 16:09:00,82.6,76.6,29.94,SE,124,5.0,8.0,82,0.00,,FEW,0.00,747.00,VWS V14.01,2013-04-04 20:09:00,
2013-04-04 16:12:00,82.4,76.4,29.94,SSE,164,3.0,8.0,82,0.00,,FEW,0.00,740.00,VWS V14.01,2013-04-04 20:12:00,
2013-04-04 16:13:00,82.4,76.4,29.94,SSE,153,1.0,5.0,82,0.00,,FEW,0.00,737.00,VWS V14.01,2013-04-04 20:13:00,
2013-04-04 16:14:00,82.5,76.4,29.94,South,176,4.0,7.0,82,0.00,,FEW,0.00,687.00,VWS V14.01,2013-04-04 20:14:00,
2013-04-04 16:17:00,82.5,76.4,29.94,SSE,150,7.0,7.0,82,0.00,,FEW,0.00,740.00,VWS V14.01,2013-04-04 20:17:00,
2013-04-04 16:18:00,82.3,76.3,29.94,South,182,5.0,7.0,82,0.00,,FEW,0.00,657.00,VWS V14.01,2013-04-04 20:18:00,
2013-04-04 16:19:00,82.3,76.3,29.94,East,82,3.0,7.0,82,0.00,,FEW,0.00,744.00,VWS V14.01,2013-04-04 20:19:00,
2013-04-04 16:22:00,82.4,76.4,29.94,SE,128,4.0,7.0,82,0.00,,FEW,0.00,448.00,VWS V14.01,2013-04-04 20:22:00,
2013-04-04 16:23:00,82.4,76.4,29.94,SE,132,4.0,6.0,82,0.00,,FEW,0.00,448.00,VWS V14.01,2013-04-04 20:23:00,
2013-04-04 16:24:00,82.3,76.3,29.94,SSE,154,2.0,6.0,82,0.00,,FEW,0.00,601.00,VWS V14.01,2013-04-04 20:24:00,
2013-04-04 16:27:00,82.4,76.4,29.94,South,184,6.0,8.0,82,0.00,,FEW,0.00,645.00,VWS V14.01,2013-04-04 20:27:00,
2013-04-04 16:28:00,82.5,76.4,29.94,SE,136,2.0,8.0,82,0.00,,FEW,0.00,645.00,VWS V14.01,2013-04-04 20:28:00,
2013-04-04 16:30:00,82.5,76.4,29.94,SSW,208,5.0,8.0,82,0.00,,FEW,0.00,617.00,VWS V14.01,2013-04-04 20:30:00,
2013-04-04 16:32:00,82.5,76.4,29.94,South,178,3.0,5.0,82,0.00,,FEW,0.00,666.00,VWS V14.01,2013-04-04 20:32:00,
2013-04-04 16:34:00,82.4,76.4,29.94,South,180,3.0,5.0,82,0.00,,FEW,0.00,480.00,VWS V14.01,2013-04-04 20:34:00,
2013-04-04 16:35:00,82.4,76.0,29.94,SSW,203,4.0,7.0,81,0.00,,FEW,0.00,480.00,VWS V14.01,2013-04-04 20:35:00,
2013-04-04 16:37:00,82.2,76.2,29.94,South,184,2.0,7.0,82,0.00,,FEW,0.00,480.00,VWS V14.01,2013-04-04 20:37:00,
2013-04-04 16:39:00,82.1,76.1,29.94,South,173,5.0,7.0,82,0.00,,FEW,0.00,287.00,VWS V14.01,2013-04-04 20:39:00,
2013-04-04 16:40:00,82.0,76.0,29.94,South,177,4.0,7.0,82,0.00,,FEW,0.00,287.00,VWS V14.01,2013-04-04 20:40:00,
2013-04-04 16:42:00,81.8,75.8,29.94,South,175,3.0,4.0,82,0.00,,FEW,0.00,257.00,VWS V14.01,2013-04-04 20:42:00,
2013-04-04 16:44:00,81.8,76.1,29.94,South,171,4.0,5.0,83,0.00,,FEW,0.00,267.00,VWS V14.01,2013-04-04 20:44:00,
2013-04-04 16:45:00,81.8,76.1,29.94,SE,136,3.0,5.0,83,0.00,,FEW,0.00,267.00,VWS V14.01,2013-04-04 20:45:00,
2013-04-04 16:47:00,81.5,75.8,29.94,SE,138,2.0,7.0,83,0.00,,FEW,0.00,271.00,VWS V14.01,2013-04-04 20:47:00,
2013-04-04 16:50:00,81.3,75.7,29.94,South,184,4.0,7.0,83,0.00,,FEW,0.00,243.00,VWS V14.01,2013-04-04 20:50:00,
2013-04-04 16:51:00,81.3,76.0,29.94,SSE,165,4.0,7.0,84,0.00,,FEW,0.00,243.00,VWS V14.01,2013-04-04 20:51:00,
2013-04-04 16:53:00,81.3,75.7,29.94,SE,140,3.0,3.0,83,0.00,,FEW,0.00,243.00,VWS V14.01,2013-04-04 20:53:00,
2013-04-04 16:55:00,81.3,75.7,29.94,South,180,3.0,5.0,83,0.00,,FEW,0.00,251.00,VWS V14.01,2013-04-04 20:55:00,
2013-04-04 16:56:00,81.2,75.9,29.94,SSE,153,3.0,6.0,84,0.00,,FEW,0.00,251.00,VWS V14.01,2013-04-04 20:56:00,
2013-04-04 16:58:00,81.3,76.0,29.94,SE,143,3.0,6.0,84,0.00,,FEW,0.00,374.00,VWS V14.01,2013-04-04 20:58:00,
2013-04-04 17:00:00,81.5,75.8,29.94,SSW,201,6.0,6.0,83,0.00,,FEW,0.00,278.00,VWS V14.01,2013-04-04 21:00:00,
2013-04-04 17:02:00,81.5,75.8,29.94,SE,146,3.0,6.0,83,0.00,,FEW,0.00,278.00,VWS V14.01,2013-04-04 21:02:00,
2013-04-04 17:03:00,81.6,76.3,29.94,South,188,6.0,6.0,84,0.00,,FEW,0.00,278.00,VWS V14.01,2013-04-04 21:03:00,
2013-04-04 17:05:00,81.6,75.9,29.94,South,188,4.0,6.0,83,0.00,,FEW,0.00,278.00,VWS V14.01,2013-04-04 21:05:00,
2013-04-04 17:07:00,81.6,75.9,29.94,South,183,5.0,6.0,83,0.00,,FEW,0.00,592.00,VWS V14.01,2013-04-04 21:07:00,
2013-04-04 17:08:00,81.6,75.9,29.94,SSE,162,2.0,6.0,83,0.00,,FEW,0.00,592.00,VWS V14.01,2013-04-04 21:08:00,
2013-04-04 17:10:00,81.5,75.8,29.94,SE,140,4.0,6.0,83,0.00,,FEW,0.00,309.00,VWS V14.01,2013-04-04 21:10:00,
2013-04-04 17:12:00,81.4,75.7,29.94,SE,144,2.0,6.0,83,0.00,,FEW,0.00,272.00,VWS V14.01,2013-04-04 21:12:00,
2013-04-04 17:13:00,81.4,75.7,29.94,SSE,162,5.0,5.0,83,0.00,,FEW,0.00,360.00,VWS V14.01,2013-04-04 21:13:00,
2013-04-04 17:15:00,81.3,76.0,29.94,South,180,3.0,6.0,84,0.00,,FEW,0.00,455.00,VWS V14.01,2013-04-04 21:15:00,
2013-04-04 17:18:00,81.4,76.1,29.94,South,170,4.0,7.0,84,0.00,,FEW,0.00,510.00,VWS V14.01,2013-04-04 21:18:00,
2013-04-04 17:21:00,81.3,75.7,29.94,SSE,161,4.0,7.0,83,0.00,,FEW,0.00,501.00,VWS V14.01,2013-04-04 21:21:00,
2013-04-04 17:23:00,81.2,75.6,29.94,South,175,3.0,4.0,83,0.00,,FEW,0.00,455.00,VWS V14.01,2013-04-04 21:23:00,
2013-04-04 17:24:00,81.2,75.6,29.94,SE,142,5.0,5.0,83,0.00,,FEW,0.00,455.00,VWS V14.01,2013-04-04 21:24:00,
2013-04-04 17:26:00,81.2,75.6,29.94,South,190,5.0,5.0,83,0.00,,FEW,0.00,135.00,VWS V14.01,2013-04-04 21:26:00,
2013-04-04 17:28:00,81.2,75.6,29.94,South,175,3.0,5.0,83,0.00,,FEW,0.00,118.00,VWS V14.01,2013-04-04 21:28:00,
2013-04-04 17:29:00,81.2,75.6,29.94,SE,137,4.0,5.0,83,0.00,,FEW,0.00,118.00,VWS V14.01,2013-04-04 21:29:00,
2013-04-04 17:31:00,81.2,75.6,29.94,SSE,155,2.0,6.0,83,0.00,,FEW,0.00,132.00,VWS V14.01,2013-04-04 21:31:00,
2013-04-04 17:33:00,81.2,75.6,29.94,SSW,206,5.0,8.0,83,0.00,,FEW,0.00,146.00,VWS V14.01,2013-04-04 21:33:00,
2013-04-04 17:34:00,81.2,75.6,29.94,SSE,148,3.0,8.0,83,0.00,,FEW,0.00,146.00,VWS V14.01,2013-04-04 21:34:00,
2013-04-04 17:36:00,81.0,75.3,29.94,SE,146,3.0,8.0,83,0.00,,FEW,0.00,165.00,VWS V14.01,2013-04-04 21:36:00,
2013-04-04 17:38:00,80.9,75.3,29.94,SSE,153,3.0,8.0,83,0.00,,FEW,0.00,257.00,VWS V14.01,2013-04-04 21:38:00,
2013-04-04 17:39:00,80.9,75.6,29.94,SSE,168,7.0,8.0,84,0.00,,FEW,0.00,418.00,VWS V14.01,2013-04-04 21:39:00,
2013-04-04 17:42:00,80.7,75.4,29.94,SE,136,2.0,3.0,84,0.00,,FEW,0.00,432.00,VWS V14.01,2013-04-04 21:42:00,
2013-04-04 17:43:00,80.7,75.4,29.94,SE,130,4.0,7.0,84,0.00,,FEW,0.00,438.00,VWS V14.01,2013-04-04 21:43:00,
2013-04-04 17:44:00,80.7,75.4,29.94,ESE,119,7.0,7.0,84,0.00,,FEW,0.00,424.00,VWS V14.01,2013-04-04 21:44:00,
2013-04-04 17:48:00,80.8,75.5,29.93,ESE,123,3.0,7.0,84,0.00,,FEW,0.00,371.00,VWS V14.01,2013-04-04 21:48:00,
2013-04-04 17:49:00,80.8,75.5,29.93,SSE,159,3.0,7.0,84,0.00,,FEW,0.00,195.00,VWS V14.01,2013-04-04 21:49:00,
2013-04-04 17:50:00,80.8,75.5,29.93,SSE,150,2.0,7.0,84,0.00,,FEW,0.00,195.00,VWS V14.01,2013-04-04 21:50:00,
2013-04-04 17:53:00,80.8,75.5,29.93,South,173,1.0,5.0,84,0.00,,FEW,0.00,221.00,VWS V14.01,2013-04-04 21:53:00,
2013-04-04 17:54:00,80.8,75.5,29.93,South,171,2.0,5.0,84,0.00,,FEW,0.00,362.00,VWS V14.01,2013-04-04 21:54:00,
2013-04-04 17:55:00,80.8,75.5,29.93,SE,138,4.0,7.0,84,0.00,,FEW,0.00,353.00,VWS V14.01,2013-04-04 21:55:00,
2013-04-04 17:58:00,80.7,75.4,29.93,SE,138,6.0,7.0,84,0.00,,FEW,0.00,306.00,VWS V14.01,2013-04-04 21:58:00,
2013-04-04 17:59:00,80.7,75.4,29.93,SE,146,4.0,7.0,84,0.00,,FEW,0.00,306.00,VWS V14.01,2013-04-04 21:59:00,
2013-04-04 18:00:00,80.7,75.4,29.93,SSE,155,4.0,7.0,84,0.00,,FEW,0.00,306.00,VWS V14.01,2013-04-04 22:00:00,
2013-04-04 18:03:00,80.6,75.3,29.94,SSE,156,2.0,5.0,84,0.00,,FEW,0.00,144.00,VWS V14.01,2013-04-04 22:03:00,
2013-04-04 18:04:00,80.6,75.3,29.94,South,169,2.0,5.0,84,0.00,,FEW,0.00,148.00,VWS V14.01,2013-04-04 22:04:00,
2013-04-04 18:05:00,80.6,75.3,29.94,SE,133,4.0,5.0,84,0.00,,FEW,0.00,171.00,VWS V14.01,2013-04-04 22:05:00,
2013-04-04 18:08:00,80.4,75.1,29.94,SSE,155,4.0,7.0,84,0.00,,FEW,0.00,211.00,VWS V14.01,2013-04-04 22:08:00,
2013-04-04 18:09:00,80.4,75.1,29.94,SE,133,4.0,7.0,84,0.00,,FEW,0.00,121.00,VWS V14.01,2013-04-04 22:09:00,
2013-04-04 18:10:00,80.4,75.1,29.94,SE,127,2.0,7.0,84,0.00,,FEW,0.00,121.00,VWS V14.01,2013-04-04 22:10:00,
2013-04-04 18:14:00,80.5,75.2,29.94,SE,127,5.0,5.0,84,0.00,,FEW,0.00,118.00,VWS V14.01,2013-04-04 22:14:00,
2013-04-04 18:15:00,80.5,75.2,29.94,SE,140,2.0,5.0,84,0.00,,FEW,0.00,128.00,VWS V14.01,2013-04-04 22:15:00,
2013-04-04 18:16:00,80.5,75.2,29.94,SE,130,5.0,5.0,84,0.00,,FEW,0.00,223.00,VWS V14.01,2013-04-04 22:16:00,
2013-04-04 18:19:00,80.3,75.0,29.94,ESE,116,2.0,5.0,84,0.00,,FEW,0.00,202.00,VWS V14.01,2013-04-04 22:19:00,
2013-04-04 18:20:00,80.2,74.9,29.94,ESE,112,2.0,5.0,84,0.00,,FEW,0.00,120.00,VWS V14.01,2013-04-04 22:20:00,
2013-04-04 18:21:00,80.2,74.9,29.94,SE,127,2.0,5.0,84,0.00,,FEW,0.00,120.00,VWS V14.01,2013-04-04 22:21:00,
2013-04-04 18:22:00,80.2,74.9,29.94,SE,137,2.0,3.0,84,0.00,,FEW,0.00,116.00,VWS V14.01,2013-04-04 22:22:00,
2013-04-04 18:25:00,80.2,74.9,29.94,SE,131,1.0,5.0,84,0.00,,FEW,0.00,113.00,VWS V14.01,2013-04-04 22:25:00,
2013-04-04 18:26:00,80.1,74.8,29.94,SE,145,4.0,8.0,84,0.00,,FEW,0.00,109.00,VWS V14.01,2013-04-04 22:26:00,
2013-04-04 18:27:00,80.1,74.8,29.94,SE,139,3.0,8.0,84,0.00,,FEW,0.00,104.00,VWS V14.01,2013-04-04 22:27:00,
2013-04-04 18:30:00,80.1,74.8,29.94,ESE,105,2.0,8.0,84,0.00,,FEW,0.00,90.00,VWS V14.01,2013-04-04 22:30:00,
2013-04-04 18:31:00,80.1,74.8,29.94,SE,141,4.0,8.0,84,0.00,,FEW,0.00,84.00,VWS V14.01,2013-04-04 22:31:00,
2013-04-04 18:32:00,80.1,74.8,29.94,ESE,117,2.0,2.0,84,0.00,,FEW,0.00,84.00,VWS V14.01,2013-04-04 22:32:00,
2013-04-04 18:35:00,80.1,74.8,29.94,SE,126,2.0,5.0,84,0.00,,FEW,0.00,137.00,VWS V14.01,2013-04-04 22:35:00,
2013-04-04 18:36:00,80.1,74.8,29.94,SE,144,2.0,5.0,84,0.00,,FEW,0.00,128.00,VWS V14.01,2013-04-04 22:36:00,
2013-04-04 18:37:00,80.1,74.8,29.94,SE,141,4.0,5.0,84,0.00,,FEW,0.00,107.00,VWS V14.01,2013-04-04 22:37:00,
2013-04-04 18:40:00,80.0,74.7,29.94,SSE,150,2.0,5.0,84,0.00,,FEW,0.00,98.00,VWS V14.01,2013-04-04 22:40:00,
2013-04-04 18:41:00,80.0,74.7,29.94,SE,132,2.0,5.0,84,0.00,,FEW,0.00,100.00,VWS V14.01,2013-04-04 22:41:00,
2013-04-04 18:43:00,80.0,74.7,29.94,SSE,153,3.0,3.0,84,0.00,,FEW,0.00,100.00,VWS V14.01,2013-04-04 22:43:00,
2013-04-04 18:45:00,79.9,74.6,29.94,SE,146,3.0,5.0,84,0.00,,FEW,0.00,95.00,VWS V14.01,2013-04-04 22:45:00,
2013-04-04 18:46:00,79.9,74.6,29.94,SSE,148,4.0,5.0,84,0.00,,FEW,0.00,95.00,VWS V14.01,2013-04-04 22:46:00,
2013-04-04 18:49:00,79.8,74.9,29.94,ESE,107,2.0,5.0,85,0.00,,FEW,0.00,74.00,VWS V14.01,2013-04-04 22:49:00,
2013-04-04 18:50:00,79.8,74.9,29.94,SE,128,2.0,5.0,85,0.00,,FEW,0.00,65.00,VWS V14.01,2013-04-04 22:50:00,
2013-04-04 18:51:00,79.8,74.9,29.94,SE,128,1.0,5.0,85,0.00,,FEW,0.00,60.00,VWS V14.01,2013-04-04 22:51:00,
2013-04-04 18:52:00,79.8,74.9,29.94,SE,128,2.0,5.0,85,0.00,,FEW,0.00,56.00,VWS V14.01,2013-04-04 22:52:00,
2013-04-04 18:54:00,79.7,74.8,29.94,SE,130,2.0,3.0,85,0.00,,FEW,0.00,51.00,VWS V14.01,2013-04-04 22:54:00,
2013-04-04 18:55:00,79.7,74.8,29.94,SE,140,2.0,4.0,85,0.00,,FEW,0.00,51.00,VWS V14.01,2013-04-04 22:55:00,
2013-04-04 18:57:00,79.7,74.8,29.94,SSE,153,4.0,4.0,85,0.00,,FEW,0.00,53.00,VWS V14.01,2013-04-04 22:57:00,
2013-04-04 18:59:00,79.6,74.7,29.94,ESE,109,1.0,4.0,85,0.00,,FEW,0.00,54.00,VWS V14.01,2013-04-04 22:59:00,
2013-04-04 19:00:00,79.6,74.7,29.94,SSE,158,3.0,4.0,85,0.00,,FEW,0.00,56.00,VWS V14.01,2013-04-04 23:00:00,
2013-04-04 19:02:00,79.5,74.9,29.94,SSE,163,4.0,4.0,86,0.00,,FEW,0.00,56.00,VWS V14.01,2013-04-04 23:02:00,
2013-04-04 19:04:00,79.4,74.8,29.94,SE,128,2.0,5.0,86,0.00,,FEW,0.00,49.00,VWS V14.01,2013-04-04 23:04:00,
2013-04-04 19:05:00,79.4,74.8,29.94,SE,135,3.0,5.0,86,0.00,,FEW,0.00,46.00,VWS V14.01,2013-04-04 23:05:00,
2013-04-04 19:07:00,79.4,74.8,29.94,SE,144,3.0,5.0,86,0.00,,FEW,0.00,42.00,VWS V14.01,2013-04-04 23:07:00,
2013-04-04 19:09:00,79.3,74.8,29.94,SE,138,6.0,6.0,86,0.00,,FEW,0.00,30.00,VWS V14.01,2013-04-04 23:09:00,
2013-04-04 19:11:00,79.2,74.7,29.94,SE,146,4.0,6.0,86,0.00,,FEW,0.00,26.00,VWS V14.01,2013-04-04 23:11:00,
2013-04-04 19:12:00,79.1,74.6,29.94,SE,131,2.0,6.0,86,0.00,,FEW,0.00,21.00,VWS V14.01,2013-04-04 23:12:00,
2013-04-04 19:14:00,79.1,74.6,29.94,ESE,117,1.0,4.0,86,0.00,,FEW,0.00,18.00,VWS V14.01,2013-04-04 23:14:00,
2013-04-04 19:16:00,79.0,74.5,29.94,SE,141,4.0,4.0,86,0.00,,FEW,0.00,18.00,VWS V14.01,2013-04-04 23:16:00,
2013-04-04 19:17:00,79.0,74.8,29.94,SSE,153,2.0,4.0,87,0.00,,FEW,0.00,16.00,VWS V14.01,2013-04-04 23:17:00,
2013-04-04 19:20:00,78.9,74.7,29.94,SE,130,2.0,5.0,87,0.00,,FEW,0.00,12.00,VWS V14.01,2013-04-04 23:20:00,
2013-04-04 19:21:00,78.9,74.7,29.94,SE,131,3.0,5.0,87,0.00,,FEW,0.00,11.00,VWS V14.01,2013-04-04 23:21:00,
2013-04-04 19:22:00,78.9,74.7,29.94,ESE,121,3.0,3.0,87,0.00,,FEW,0.00,11.00,VWS V14.01,2013-04-04 23:22:00,
2013-04-04 19:23:00,78.8,74.6,29.94,ESE,115,2.0,3.0,87,0.00,,FEW,0.00,11.00,VWS V14.01,2013-04-04 23:23:00,
2013-04-04 19:25:00,78.8,74.6,29.94,SE,144,1.0,4.0,87,0.00,,FEW,0.00,9.00,VWS V14.01,2013-04-04 23:25:00,
2013-04-04 19:26:00,78.8,74.6,29.94,SE,145,2.0,4.0,87,0.00,,FEW,0.00,7.00,VWS V14.01,2013-04-04 23:26:00,
2013-04-04 19:27:00,78.8,74.6,29.94,ESE,103,3.0,4.0,87,0.00,,FEW,0.00,7.00,VWS V14.01,2013-04-04 23:27:00,
2013-04-04 19:28:00,78.7,74.5,29.94,SE,144,3.0,4.0,87,0.00,,FEW,0.00,7.00,VWS V14.01,2013-04-04 23:28:00,
2013-04-04 19:30:00,78.7,74.5,29.94,SE,144,4.0,4.0,87,0.00,,FEW,0.00,7.00,VWS V14.01,2013-04-04 23:30:00,
2013-04-04 19:31:00,78.7,74.5,29.94,SE,126,4.0,4.0,87,0.00,,FEW,0.00,5.00,VWS V14.01,2013-04-04 23:31:00,
2013-04-04 19:32:00,78.7,74.5,29.94,SE,125,1.0,2.0,87,0.00,,FEW,0.00,5.00,VWS V14.01,2013-04-04 23:32:00,
2013-04-04 19:33:00,78.7,74.5,29.94,SE,132,2.0,2.0,87,0.00,,FEW,0.00,5.00,VWS V14.01,2013-04-04 23:33:00,
2013-04-04 19:35:00,78.6,74.8,29.94,SE,125,0.0,4.0,88,0.00,,FEW,0.00,0.00,VWS V14.01,2013-04-04 23:35:00,
2013-04-04 19:36:00,78.6,74.8,29.94,ESE,117,1.0,4.0,88,0.00,,FEW,0.00,0.00,VWS V14.01,2013-04-04 23:36:00,
2013-04-04 19:38:00,78.6,74.8,29.94,ESE,105,1.0,4.0,88,0.00,,FEW,0.00,0.00,VWS V14.01,2013-04-04 23:38:00,
2013-04-04 19:41:00,78.6,74.8,29.94,ESE,118,2.0,4.0,88,0.00,,FEW,0.00,0.00,VWS V14.01,2013-04-04 23:41:00,
2013-04-04 19:42:00,78.6,74.8,29.94,SSE,159,5.0,5.0,88,0.00,,FEW,0.00,0.00,VWS V14.01,2013-04-04 23:42:00,
2013-04-04 19:43:00,78.5,74.7,29.94,ESE,117,1.0,2.0,88,0.00,,FEW,0.00,0.00,VWS V14.01,2013-04-04 23:43:00,
2013-04-04 19:44:00,78.5,74.7,29.94,SSE,153,3.0,3.0,88,0.00,,FEW,0.00,0.00,VWS V14.01,2013-04-04 23:44:00,
2013-04-04 19:46:00,78.5,74.7,29.94,SE,125,2.0,4.0,88,0.00,,FEW,0.00,0.00,VWS V14.01,2013-04-04 23:46:00,
2013-04-04 19:47:00,78.4,74.6,29.94,ESE,119,2.0,4.0,88,0.00,,FEW,0.00,0.00,VWS V14.01,2013-04-04 23:47:00,
2013-04-04 19:48:00,78.4,74.6,29.94,ESE,119,2.0,4.0,88,0.00,,FEW,0.00,0.00,VWS V14.01,2013-04-04 23:48:00,
2013-04-04 19:49:00,78.4,74.6,29.94,SE,127,1.0,4.0,88,0.00,,FEW,0.00,0.00,VWS V14.01,2013-04-04 23:49:00,
2013-04-04 19:52:00,78.3,74.5,29.94,SE,136,2.0,6.0,88,0.00,,FEW,0.00,0.00,VWS V14.01,2013-04-04 23:52:00,
2013-04-04 19:53:00,78.3,74.5,29.94,SSE,153,4.0,4.0,88,0.00,,FEW,0.00,0.00,VWS V14.01,2013-04-04 23:53:00,
2013-04-04 19:54:00,78.3,74.8,29.94,ESE,107,1.0,4.0,89,0.00,,FEW,0.00,0.00,VWS V14.01,2013-04-04 23:54:00,
2013-04-04 19:57:00,78.2,74.7,29.94,SE,137,3.0,4.0,89,0.00,,FEW,0.00,0.00,VWS V14.01,2013-04-04 23:57:00,
2013-04-04 19:58:00,78.2,74.7,29.94,SE,126,0.0,4.0,89,0.00,,FEW,0.00,0.00,VWS V14.01,2013-04-04 23:58:00,
2013-04-04 20:00:00,78.2,74.7,29.94,ESE,116,0.0,4.0,89,0.00,,FEW,0.00,0.00,VWS V14.01,2013-04-05 00:00:00,
2013-04-04 20:02:00,78.2,74.7,29.94,ESE,116,3.0,4.0,89,0.00,,FEW,0.00,0.00,VWS V14.01,2013-04-05 00:02:00,
2013-04-04 20:03:00,78.2,74.7,29.94,ESE,119,3.0,3.0,89,0.00,,FEW,0.00,0.00,VWS V14.01,2013-04-05 00:03:00,
2013-04-04 20:05:00,78.2,74.7,29.94,ESE,118,3.0,5.0,89,0.00,,FEW,0.00,0.00,VWS V14.01,2013-04-05 00:05:00,
2013-04-04 20:07:00,78.2,74.7,29.94,SE,138,5.0,5.0,89,0.00,,FEW,0.00,0.00,VWS V14.01,2013-04-05 00:07:00,
2013-04-04 20:08:00,78.2,74.7,29.94,SE,145,5.0,5.0,89,0.00,,FEW,0.00,0.00,VWS V14.01,2013-04-05 00:08:00,
2013-04-04 20:10:00,78.1,74.6,29.94,ESE,105,2.0,5.0,89,0.00,,FEW,0.00,0.00,VWS V14.01,2013-04-05 00:10:00,
2013-04-04 20:12:00,78.1,74.6,29.94,ESE,123,0.0,5.0,89,0.00,,FEW,0.00,0.00,VWS V14.01,2013-04-05 00:12:00,
2013-04-04 20:13:00,78.1,74.6,29.94,SE,130,2.0,5.0,89,0.00,,FEW,0.00,0.00,VWS V14.01,2013-04-05 00:13:00,
2013-04-04 20:15:00,78.0,74.5,29.94,ESE,115,2.0,5.0,89,0.00,,FEW,0.00,0.00,VWS V14.01,2013-04-05 00:15:00,
2013-04-04 20:17:00,78.0,74.8,29.93,SSE,149,3.0,5.0,90,0.00,,FEW,0.00,0.00,VWS V14.01,2013-04-05 00:17:00,
2013-04-04 20:20:00,78.0,74.8,29.93,SE,126,4.0,5.0,90,0.00,,FEW,0.00,0.00,VWS V14.01,2013-04-05 00:20:00,
2013-04-04 20:22:00,77.9,74.7,29.93,SSE,160,3.0,3.0,90,0.00,,FEW,0.00,0.00,VWS V14.01,2013-04-05 00:22:00,
2013-04-04 20:25:00,77.9,74.7,29.93,ESE,115,3.0,6.0,90,0.00,,FEW,0.00,0.00,VWS V14.01,2013-04-05 00:25:00,
2013-04-04 20:26:00,77.9,74.7,29.93,ESE,119,3.0,6.0,90,0.00,,FEW,0.00,0.00,VWS V14.01,2013-04-05 00:26:00,
2013-04-04 20:27:00,77.8,74.6,29.93,ESE,118,2.0,6.0,90,0.00,,FEW,0.00,0.00,VWS V14.01,2013-04-05 00:27:00,
2013-04-04 20:30:00,77.8,74.6,29.93,SSE,149,4.0,6.0,90,0.00,,FEW,0.00,0.00,VWS V14.01,2013-04-05 00:30:00,
2013-04-04 20:31:00,77.8,74.6,29.93,SE,132,3.0,6.0,90,0.00,,FEW,0.00,0.00,VWS V14.01,2013-04-05 00:31:00,
2013-04-04 20:32:00,77.8,74.6,29.92,SSE,167,3.0,3.0,90,0.00,,FEW,0.00,0.00,VWS V14.01,2013-04-05 00:32:00,
2013-04-04 20:33:00,77.8,74.6,29.92,ESE,118,5.0,5.0,90,0.00,,FEW,0.00,0.00,VWS V14.01,2013-04-05 00:33:00,
2013-04-04 20:36:00,77.7,74.5,29.92,South,169,4.0,7.0,90,0.00,,FEW,0.00,0.00,VWS V14.01,2013-04-05 00:36:00,
2013-04-04 20:37:00,77.6,74.4,29.92,SE,146,6.0,7.0,90,0.00,,FEW,0.00,0.00,VWS V14.01,2013-04-05 00:37:00,
2013-04-04 20:38:00,77.6,74.4,29.92,SE,131,5.0,7.0,90,0.00,,FEW,0.00,0.00,VWS V14.01,2013-04-05 00:38:00,
2013-04-04 20:41:00,77.6,74.4,29.92,SSE,150,5.0,8.0,90,0.00,,FEW,0.00,0.00,VWS V14.01,2013-04-05 00:41:00,
2013-04-04 20:42:00,77.6,74.4,29.92,SE,124,2.0,2.0,90,0.00,,FEW,0.00,0.00,VWS V14.01,2013-04-05 00:42:00,
2013-04-04 20:43:00,77.6,74.4,29.92,East,100,5.0,5.0,90,0.00,,FEW,0.00,0.00,VWS V14.01,2013-04-05 00:43:00,
2013-04-04 20:46:00,77.7,74.9,29.92,ESE,109,2.0,6.0,91,0.00,,FEW,0.00,0.00,VWS V14.01,2013-04-05 00:46:00,
2013-04-04 20:48:00,77.7,74.9,29.92,SSE,156,3.0,7.0,91,0.00,,FEW,0.00,0.00,VWS V14.01,2013-04-05 00:48:00,
2013-04-04 20:51:00,77.6,74.8,29.92,SE,127,3.0,7.0,91,0.00,,FEW,0.00,0.00,VWS V14.01,2013-04-05 00:51:00,
2013-04-04 20:52:00,77.6,74.8,29.92,SE,144,2.0,7.0,91,0.00,,FEW,0.00,0.00,VWS V14.01,2013-04-05 00:52:00,
2013-04-04 20:53:00,77.6,74.8,29.92,SE,127,2.0,2.0,91,0.00,,FEW,0.00,0.00,VWS V14.01,2013-04-05 00:53:00,
2013-04-04 20:57:00,77.6,74.8,29.92,ESE,115,1.0,3.0,91,0.00,,FEW,0.00,0.00,VWS V14.01,2013-04-05 00:57:00,
2013-04-04 20:58:00,77.6,74.8,29.92,ESE,115,1.0,3.0,91,0.00,,FEW,0.00,0.00,VWS V14.01,2013-04-05 00:58:00,
2013-04-04 21:02:00,77.6,74.8,29.91,SE,128,2.0,7.0,91,0.00,,FEW,0.00,0.00,VWS V14.01,2013-04-05 01:02:00,
2013-04-04 21:03:00,77.5,74.7,29.91,SSE,153,1.0,3.0,91,0.00,,FEW,0.00,0.00,VWS V14.01,2013-04-05 01:03:00,
2013-04-04 21:07:00,77.5,74.7,29.91,ESE,113,3.0,7.0,91,0.00,,FEW,0.00,0.00,VWS V14.01,2013-04-05 01:07:00,
2013-04-04 21:08:00,77.5,74.7,29.91,SE,134,4.0,7.0,91,0.00,,FEW,0.00,0.00,VWS V14.01,2013-04-05 01:08:00,
2013-04-04 21:12:00,77.5,74.7,29.91,ESE,121,8.0,8.0,91,0.00,,FEW,0.00,0.00,VWS V14.01,2013-04-05 01:12:00,
2013-04-04 21:13:00,77.5,74.7,29.91,SE,131,3.0,8.0,91,0.00,,FEW,0.00,0.00,VWS V14.01,2013-04-05 01:13:00,
2013-04-04 21:17:00,77.4,74.6,29.92,SSE,156,5.0,8.0,91,0.00,,FEW,0.00,0.00,VWS V14.01,2013-04-05 01:17:00,
2013-04-04 21:18:00,77.4,74.6,29.92,SE,133,5.0,8.0,91,0.00,,FEW,0.00,0.00,VWS V14.01,2013-04-05 01:18:00,
2013-04-04 21:22:00,77.4,74.6,29.92,SE,138,6.0,8.0,91,0.00,,FEW,0.00,0.00,VWS V14.01,2013-04-05 01:22:00,
2013-04-04 21:23:00,77.3,74.5,29.92,SSE,147,4.0,8.0,91,0.00,,FEW,0.00,0.00,VWS V14.01,2013-04-05 01:23:00,
2013-04-04 21:24:00,77.3,74.5,29.92,SE,128,3.0,8.0,91,0.00,,FEW,0.00,0.00,VWS V14.01,2013-04-05 01:24:00,
2013-04-04 21:27:00,77.3,74.8,29.92,SE,143,3.0,8.0,92,0.00,,FEW,0.00,0.00,VWS V14.01,2013-04-05 01:27:00,
2013-04-04 21:28:00,77.3,74.8,29.92,ESE,123,3.0,8.0,92,0.00,,FEW,0.00,0.00,VWS V14.01,2013-04-05 01:28:00,
2013-04-04 21:29:00,77.3,74.8,29.92,ESE,123,4.0,8.0,92,0.00,,FEW,0.00,0.00,VWS V14.01,2013-04-05 01:29:00,
2013-04-04 21:33:00,77.3,74.8,29.92,SSE,155,5.0,7.0,92,0.00,,FEW,0.00,0.00,VWS V14.01,2013-04-05 01:33:00,
2013-04-04 21:34:00,77.3,74.8,29.92,SE,146,1.0,7.0,92,0.00,,FEW,0.00,0.00,VWS V14.01,2013-04-05 01:34:00,
2013-04-04 21:35:00,77.3,74.8,29.92,SE,128,6.0,8.0,92,0.00,,FEW,0.00,0.00,VWS V14.01,2013-04-05 01:35:00,
2013-04-04 21:38:00,77.3,74.8,29.92,SSE,148,5.0,8.0,92,0.00,,FEW,0.00,0.00,VWS V14.01,2013-04-05 01:38:00,
2013-04-04 21:39:00,77.3,74.8,29.92,SE,138,4.0,8.0,92,0.00,,FEW,0.00,0.00,VWS V14.01,2013-04-05 01:39:00,
2013-04-04 21:40:00,77.3,74.8,29.92,SSE,148,4.0,8.0,92,0.00,,FEW,0.00,0.00,VWS V14.01,2013-04-05 01:40:00,
2013-04-04 21:43:00,77.3,74.8,29.92,SE,129,3.0,7.0,92,0.00,,FEW,0.00,0.00,VWS V14.01,2013-04-05 01:43:00,
2013-04-04 21:45:00,77.2,74.7,29.92,SE,146,6.0,7.0,92,0.00,,FEW,0.00,0.00,VWS V14.01,2013-04-05 01:45:00,
2013-04-04 21:48:00,77.3,74.8,29.91,SE,126,3.0,7.0,92,0.00,,FEW,0.00,0.00,VWS V14.01,2013-04-05 01:48:00,
2013-04-04 21:49:00,77.3,74.8,29.91,SE,137,6.0,7.0,92,0.00,,FEW,0.00,0.00,VWS V14.01,2013-04-05 01:49:00,
2013-04-04 21:50:00,77.3,74.8,29.91,SE,135,4.0,7.0,92,0.00,,FEW,0.00,0.00,VWS V14.01,2013-04-05 01:50:00,
2013-04-04 21:54:00,77.3,74.8,29.91,SE,126,7.0,7.0,92,0.00,,FEW,0.00,0.00,VWS V14.01,2013-04-05 01:54:00,
2013-04-04 21:55:00,77.3,74.8,29.91,SSE,156,6.0,7.0,92,0.00,,FEW,0.00,0.00,VWS V14.01,2013-04-05 01:55:00,
2013-04-04 21:59:00,77.2,74.7,29.91,South,186,6.0,8.0,92,0.00,,FEW,0.00,0.00,VWS V14.01,2013-04-05 01:59:00,
2013-04-04 22:00:00,77.2,74.7,29.91,SE,143,4.0,8.0,92,0.00,,FEW,0.00,0.00,VWS V14.01,2013-04-05 02:00:00,
2013-04-04 22:01:00,77.2,74.7,29.91,ESE,122,2.0,8.0,92,0.00,,FEW,0.00,0.00,VWS V14.01,2013-04-05 02:01:00,
2013-04-04 22:04:00,77.1,74.6,29.93,SE,143,3.0,7.0,92,0.00,,FEW,0.00,0.00,VWS V14.01,2013-04-05 02:04:00,
2013-04-04 22:05:00,77.0,74.5,29.93,SE,127,3.0,7.0,92,0.00,,FEW,0.00,0.00,VWS V14.01,2013-04-05 02:05:00,
2013-04-04 22:06:00,77.0,74.5,29.93,SE,127,3.0,7.0,92,0.00,,FEW,0.00,0.00,VWS V14.01,2013-04-05 02:06:00,
2013-04-04 22:09:00,76.9,74.4,29.93,South,169,5.0,7.0,92,0.00,,FEW,0.00,0.00,VWS V14.01,2013-04-05 02:09:00,
2013-04-04 22:11:00,76.8,74.3,29.93,SE,143,5.0,10.0,92,0.00,,FEW,0.00,0.00,VWS V14.01,2013-04-05 02:11:00,
2013-04-04 22:12:00,76.7,74.2,29.93,SE,137,3.0,10.0,92,0.00,,FEW,0.00,0.00,VWS V14.01,2013-04-05 02:12:00,
2013-04-04 22:15:00,76.6,74.1,29.93,SSE,154,1.0,5.0,92,0.00,,FEW,0.00,0.00,VWS V14.01,2013-04-05 02:15:00,
2013-04-04 22:16:00,76.6,74.1,29.93,ESE,117,3.0,5.0,92,0.00,,FEW,0.00,0.00,VWS V14.01,2013-04-05 02:16:00,
2013-04-04 22:17:00,76.5,73.7,29.93,SE,144,5.0,5.0,91,0.00,,FEW,0.00,0.00,VWS V14.01,2013-04-05 02:17:00,
2013-04-04 22:20:00,76.4,73.6,29.93,SE,136,4.0,6.0,91,0.00,,FEW,0.00,0.00,VWS V14.01,2013-04-05 02:20:00,
2013-04-04 22:21:00,76.3,73.5,29.93,ESE,115,5.0,6.0,91,0.00,,FEW,0.00,0.00,VWS V14.01,2013-04-05 02:21:00,
2013-04-04 22:22:00,76.2,73.4,29.93,East,79,5.0,6.0,91,0.00,,FEW,0.00,0.00,VWS V14.01,2013-04-05 02:22:00,
2013-04-04 22:25:00,76.2,73.1,29.93,SE,141,6.0,7.0,90,0.00,,FEW,0.00,0.00,VWS V14.01,2013-04-05 02:25:00,
2013-04-04 22:27:00,76.2,73.1,29.93,SE,143,4.0,7.0,90,0.00,,FEW,0.00,0.00,VWS V14.01,2013-04-05 02:27:00,
2013-04-04 22:30:00,76.2,73.1,29.93,ESE,122,5.0,8.0,90,0.00,,FEW,0.00,0.00,VWS V14.01,2013-04-05 02:30:00,
2013-04-04 22:32:00,76.2,73.1,29.94,South,183,8.0,8.0,90,0.00,,FEW,0.00,0.00,VWS V14.01,2013-04-05 02:32:00,
2013-04-04 22:33:00,76.2,73.1,29.94,SSE,159,4.0,8.0,90,0.00,,FEW,0.00,0.00,VWS V14.01,2013-04-05 02:33:00,
2013-04-04 22:36:00,76.3,73.2,29.94,SSE,164,5.0,8.0,90,0.00,,FEW,0.00,0.00,VWS V14.01,2013-04-05 02:36:00,
2013-04-04 22:37:00,76.4,73.2,29.94,SE,145,4.0,8.0,90,0.00,,FEW,0.00,0.00,VWS V14.01,2013-04-05 02:37:00,
2013-04-04 22:38:00,76.4,72.9,29.94,SSE,160,6.0,8.0,89,0.00,,FEW,0.00,0.00,VWS V14.01,2013-04-05 02:38:00,
2013-04-04 22:42:00,76.5,73.0,29.94,SE,144,4.0,8.0,89,0.00,,FEW,0.00,0.00,VWS V14.01,2013-04-05 02:42:00,
2013-04-04 22:43:00,76.6,73.1,29.94,SE,138,5.0,6.0,89,0.00,,FEW,0.00,0.00,VWS V14.01,2013-04-05 02:43:00,
2013-04-04 22:47:00,76.7,73.2,29.94,SE,136,6.0,7.0,89,0.00,,FEW,0.00,0.00,VWS V14.01,2013-04-05 02:47:00,
2013-04-04 22:48:00,76.8,73.3,29.94,SE,124,2.0,7.0,89,0.00,,FEW,0.00,0.00,VWS V14.01,2013-04-05 02:48:00,
2013-04-04 22:52:00,76.9,73.4,29.94,SE,138,3.0,7.0,89,0.00,,FEW,0.00,0.00,VWS V14.01,2013-04-05 02:52:00,
2013-04-04 22:53:00,77.0,73.5,29.94,SSE,148,6.0,6.0,89,0.00,,FEW,0.00,0.00,VWS V14.01,2013-04-05 02:53:00,
2013-04-04 22:57:00,77.1,73.6,29.94,SSE,152,5.0,8.0,89,0.00,,FEW,0.00,0.00,VWS V14.01,2013-04-05 02:57:00,
2013-04-04 22:58:00,77.2,73.7,29.94,SE,128,4.0,8.0,89,0.00,,FEW,0.00,0.00,VWS V14.01,2013-04-05 02:58:00,
2013-04-04 23:02:00,77.3,73.8,29.96,SE,135,5.0,6.0,89,0.00,,FEW,0.00,0.00,VWS V14.01,2013-04-05 03:02:00,
2013-04-04 23:03:00,77.2,73.7,29.96,SSE,150,6.0,6.0,89,0.00,,FEW,0.00,0.00,VWS V14.01,2013-04-05 03:03:00,
2013-04-04 23:07:00,77.2,73.7,29.96,SE,135,5.0,9.0,89,0.00,,FEW,0.00,0.00,VWS V14.01,2013-04-05 03:07:00,
2013-04-04 23:08:00,77.2,73.7,29.96,SE,143,7.0,9.0,89,0.00,,FEW,0.00,0.00,VWS V14.01,2013-04-05 03:08:00,
2013-04-04 23:13:00,77.2,73.7,29.96,SSE,157,5.0,8.0,89,0.00,,FEW,0.00,0.00,VWS V14.01,2013-04-05 03:13:00,
2013-04-04 23:18:00,77.2,73.7,29.96,SSE,162,7.0,11.0,89,0.00,,FEW,0.00,0.00,VWS V14.01,2013-04-05 03:18:00,
2013-04-04 23:23:00,77.3,74.1,29.96,SE,126,5.0,9.0,90,0.00,,FEW,0.00,0.00,VWS V14.01,2013-04-05 03:23:00,
2013-04-04 23:24:00,77.3,74.1,29.96,SE,138,5.0,9.0,90,0.00,,FEW,0.00,0.00,VWS V14.01,2013-04-05 03:24:00,
2013-04-04 23:28:00,77.3,74.1,29.96,SSE,157,6.0,10.0,90,0.00,,FEW,0.00,0.00,VWS V14.01,2013-04-05 03:28:00,
2013-04-04 23:29:00,77.3,74.1,29.96,ESE,103,5.0,10.0,90,0.00,,FEW,0.00,0.00,VWS V14.01,2013-04-05 03:29:00,
2013-04-04 23:33:00,77.4,74.2,29.96,ESE,123,9.0,10.0,90,0.00,,FEW,0.00,0.00,VWS V14.01,2013-04-05 03:33:00,
2013-04-04 23:34:00,77.4,74.2,29.96,ESE,121,5.0,11.0,90,0.00,,FEW,0.00,0.00,VWS V14.01,2013-04-05 03:34:00,
2013-04-04 23:38:00,77.3,74.1,29.96,SE,135,3.0,11.0,90,0.00,,FEW,0.00,0.00,VWS V14.01,2013-04-05 03:38:00,
2013-04-04 23:39:00,77.3,74.1,29.96,SE,136,4.0,11.0,90,0.00,,FEW,0.00,0.00,VWS V14.01,2013-04-05 03:39:00,
2013-04-04 23:44:00,77.3,74.1,29.96,SE,134,7.0,7.0,90,0.00,,FEW,0.00,0.00,VWS V14.01,2013-04-05 03:44:00,
2013-04-04 23:49:00,77.3,74.5,29.96,SSE,152,4.0,10.0,91,0.00,,FEW,0.00,0.00,VWS V14.01,2013-04-05 03:49:00,
2013-04-04 23:50:00,77.3,74.1,29.96,SE,145,9.0,10.0,90,0.00,,FEW,0.00,0.00,VWS V14.01,2013-04-05 03:50:00,
2013-04-04 23:54:00,77.3,74.1,29.96,SSE,158,4.0,11.0,90,0.00,,FEW,0.00,0.00,VWS V14.01,2013-04-05 03:54:00,
2013-04-04 23:55:00,77.2,74.0,29.96,SE,127,7.0,11.0,90,0.00,,FEW,0.00,0.00,VWS V14.01,2013-04-05 03:55:00,
2013-04-04 23:59:00,77.3,74.1,29.96,South,170,5.0,11.0,90,0.00,,FEW,0.00,0.00,VWS V14.01,2013-04-05 03:59:00,